Time,TemperatureF,DewpointF,PressureIn,WindDirection,WindDirectionDegrees,WindSpeedMPH,WindSpeedGustMPH,Humidity,HourlyPrecipIn,Conditions,Clouds,dailyrainin,SoftwareType,DateUTC
2013-07-23 00:00:00,76.8,75.9,29.75,South,186,3.0,8.0,97,0.00,,,0.15,VWS V14.01,2013-07-23 04:00:00,
2013-07-23 00:01:00,76.8,75.9,29.75,SSE,159,4.0,8.0,97,0.00,,,0.15,VWS V14.01,2013-07-23 04:01:00,
2013-07-23 00:02:00,76.8,75.9,29.75,South,172,6.0,9.0,97,0.00,,,0.15,VWS V14.01,2013-07-23 04:02:00,
2013-07-23 00:03:00,76.8,75.9,29.75,SSE,165,1.0,9.0,97,0.00,,,0.15,VWS V14.01,2013-07-23 04:03:00,
2013-07-23 00:04:00,76.7,75.8,29.75,South,170,2.0,9.0,97,0.00,,,0.15,VWS V14.01,2013-07-23 04:04:00,
2013-07-23 00:06:00,76.7,75.8,29.75,SSE,168,0.0,1.0,97,0.00,,,0.00,VWS V14.01,2013-07-23 04:06:00,
2013-07-23 00:07:00,76.7,75.8,29.75,SSE,167,0.0,1.0,97,0.00,,,0.00,VWS V14.01,2013-07-23 04:07:00,
2013-07-23 00:08:00,76.7,75.8,29.75,SSE,159,0.0,1.0,97,0.00,,,0.00,VWS V14.01,2013-07-23 04:08:00,
2013-07-23 00:09:00,76.7,75.8,29.75,South,170,9.0,9.0,97,0.00,,,0.00,VWS V14.01,2013-07-23 04:09:00,
2013-07-23 00:11:00,76.7,75.8,29.75,SSE,158,0.0,9.0,97,0.00,,,0.00,VWS V14.01,2013-07-23 04:11:00,
2013-07-23 00:13:00,76.7,75.8,29.75,SSE,167,2.0,9.0,97,0.00,,,0.00,VWS V14.01,2013-07-23 04:13:00,
2013-07-23 00:14:00,76.7,75.8,29.75,SSE,167,0.0,9.0,97,0.00,,,0.00,VWS V14.01,2013-07-23 04:14:00,
2013-07-23 00:15:00,76.7,75.8,29.75,South,169,0.0,9.0,97,0.00,,,0.00,VWS V14.01,2013-07-23 04:15:00,
2013-07-23 00:16:00,76.7,75.8,29.75,SSE,166,0.0,9.0,97,0.00,,,0.00,VWS V14.01,2013-07-23 04:16:00,
2013-07-23 00:17:00,76.7,75.8,29.75,SE,136,1.0,9.0,97,0.00,,,0.00,VWS V14.01,2013-07-23 04:17:00,
2013-07-23 00:19:00,76.7,75.8,29.75,SSE,149,5.0,9.0,97,0.00,,,0.00,VWS V14.01,2013-07-23 04:19:00,
2013-07-23 00:20:00,76.7,75.8,29.74,SSE,168,6.0,9.0,97,0.00,,,0.00,VWS V14.01,2013-07-23 04:20:00,
2013-07-23 00:21:00,76.7,75.8,29.74,SSE,166,4.0,9.0,97,0.00,,,0.00,VWS V14.01,2013-07-23 04:21:00,
2013-07-23 00:25:00,76.7,75.8,29.74,SSE,167,5.0,9.0,97,0.00,,,0.00,VWS V14.01,2013-07-23 04:25:00,
2013-07-23 00:26:00,76.7,75.8,29.74,SSE,156,5.0,9.0,97,0.00,,,0.00,VWS V14.01,2013-07-23 04:26:00,
2013-07-23 00:29:00,76.7,75.8,29.74,SSE,150,5.0,9.0,97,0.00,,,0.00,VWS V14.01,2013-07-23 04:29:00,
2013-07-23 00:30:00,76.7,75.8,29.74,SSE,156,4.0,9.0,97,0.00,,,0.00,VWS V14.01,2013-07-23 04:30:00,
2013-07-23 00:31:00,76.7,75.8,29.74,SSE,163,6.0,9.0,97,0.00,,,0.00,VWS V14.01,2013-07-23 04:31:00,
2013-07-23 00:34:00,76.7,75.8,29.74,SSE,153,5.0,9.0,97,0.00,,,0.00,VWS V14.01,2013-07-23 04:34:00,
2013-07-23 00:35:00,76.7,75.8,29.74,SSE,157,7.0,9.0,97,0.00,,,0.00,VWS V14.01,2013-07-23 04:35:00,
2013-07-23 00:36:00,76.7,75.8,29.74,SSE,150,6.0,10.0,97,0.00,,,0.00,VWS V14.01,2013-07-23 04:36:00,
2013-07-23 00:39:00,76.7,75.8,29.74,SSE,152,4.0,10.0,97,0.00,,,0.00,VWS V14.01,2013-07-23 04:39:00,
2013-07-23 00:41:00,76.7,75.8,29.74,SSE,161,5.0,10.0,97,0.00,,,0.00,VWS V14.01,2013-07-23 04:41:00,
2013-07-23 00:44:00,76.7,75.8,29.74,SSE,153,4.0,10.0,97,0.00,,,0.00,VWS V14.01,2013-07-23 04:44:00,
2013-07-23 00:45:00,76.7,75.8,29.74,SSE,159,1.0,10.0,97,0.00,,,0.00,VWS V14.01,2013-07-23 04:45:00,
2013-07-23 00:46:00,76.7,75.8,29.74,SE,144,8.0,10.0,97,0.00,,,0.00,VWS V14.01,2013-07-23 04:46:00,
2013-07-23 00:47:00,76.7,75.8,29.74,SSE,150,4.0,10.0,97,0.00,,,0.00,VWS V14.01,2013-07-23 04:47:00,
2013-07-23 00:49:00,76.7,75.8,29.73,SSE,147,2.0,10.0,97,0.00,,,0.00,VWS V14.01,2013-07-23 04:49:00,
2013-07-23 00:52:00,76.7,75.8,29.73,SSE,150,5.0,10.0,97,0.00,,,0.00,VWS V14.01,2013-07-23 04:52:00,
2013-07-23 00:54:00,76.7,75.8,29.73,SSE,151,0.0,10.0,97,0.00,,,0.00,VWS V14.01,2013-07-23 04:54:00,
2013-07-23 00:55:00,76.7,75.8,29.73,SSE,152,0.0,10.0,97,0.00,,,0.00,VWS V14.01,2013-07-23 04:55:00,
2013-07-23 00:56:00,76.7,75.8,29.73,SSE,153,4.0,10.0,97,0.00,,,0.00,VWS V14.01,2013-07-23 04:56:00,
2013-07-23 00:57:00,76.7,75.8,29.73,SSE,153,4.0,10.0,97,0.00,,,0.00,VWS V14.01,2013-07-23 04:57:00,
2013-07-23 00:59:00,76.7,75.8,29.73,SSE,155,6.0,10.0,97,0.00,,,0.00,VWS V14.01,2013-07-23 04:59:00,
2013-07-23 01:00:00,76.7,75.8,29.73,SSE,159,4.0,10.0,97,0.00,,,0.00,VWS V14.01,2013-07-23 05:00:00,
2013-07-23 01:02:00,76.7,75.8,29.73,SSE,158,4.0,10.0,97,0.00,,,0.00,VWS V14.01,2013-07-23 05:02:00,
2013-07-23 01:03:00,76.7,75.8,29.73,SSE,160,4.0,10.0,97,0.00,,,0.00,VWS V14.01,2013-07-23 05:03:00,
2013-07-23 01:04:00,76.7,75.8,29.73,SSE,161,4.0,10.0,97,0.00,,,0.00,VWS V14.01,2013-07-23 05:04:00,
2013-07-23 01:05:00,76.7,75.8,29.73,SSE,160,0.0,10.0,97,0.00,,,0.00,VWS V14.01,2013-07-23 05:05:00,
2013-07-23 01:06:00,76.7,75.8,29.73,SSE,161,4.0,5.0,97,0.00,,,0.00,VWS V14.01,2013-07-23 05:06:00,
2013-07-23 01:09:00,76.7,75.8,29.73,South,175,4.0,8.0,97,0.00,,,0.00,VWS V14.01,2013-07-23 05:09:00,
2013-07-23 01:10:00,76.7,75.8,29.73,SSE,163,6.0,8.0,97,0.00,,,0.00,VWS V14.01,2013-07-23 05:10:00,
2013-07-23 01:12:00,76.7,75.8,29.73,SSE,157,4.0,8.0,97,0.00,,,0.00,VWS V14.01,2013-07-23 05:12:00,
2013-07-23 01:14:00,76.7,75.8,29.73,SSE,156,5.0,8.0,97,0.00,,,0.00,VWS V14.01,2013-07-23 05:14:00,
2013-07-23 01:16:00,76.7,75.8,29.73,SSE,159,4.0,8.0,97,0.00,,,0.00,VWS V14.01,2013-07-23 05:16:00,
2013-07-23 01:20:00,76.7,75.8,29.72,SSE,161,7.0,9.0,97,0.00,,,0.00,VWS V14.01,2013-07-23 05:20:00,
2013-07-23 01:21:00,76.7,75.8,29.72,SSE,155,7.0,9.0,97,0.00,,,0.00,VWS V14.01,2013-07-23 05:21:00,
2013-07-23 01:22:00,76.7,75.8,29.72,SSE,154,4.0,9.0,97,0.00,,,0.00,VWS V14.01,2013-07-23 05:22:00,
2013-07-23 01:25:00,76.7,75.8,29.72,SSE,155,4.0,9.0,97,0.00,,,0.00,VWS V14.01,2013-07-23 05:25:00,
2013-07-23 01:26:00,76.7,75.8,29.72,SSE,159,6.0,10.0,97,0.00,,,0.00,VWS V14.01,2013-07-23 05:26:00,
2013-07-23 01:27:00,76.7,75.8,29.72,SSE,148,5.0,10.0,97,0.00,,,0.00,VWS V14.01,2013-07-23 05:27:00,
2013-07-23 01:28:00,76.7,75.8,29.72,SSE,148,5.0,10.0,97,0.00,,,0.00,VWS V14.01,2013-07-23 05:28:00,
2013-07-23 01:30:00,76.7,75.8,29.72,SSE,155,8.0,10.0,97,0.00,,,0.00,VWS V14.01,2013-07-23 05:30:00,
2013-07-23 01:32:00,76.7,75.8,29.72,SSE,157,5.0,11.0,97,0.00,,,0.00,VWS V14.01,2013-07-23 05:32:00,
2013-07-23 01:34:00,76.7,75.8,29.71,SE,142,9.0,11.0,97,0.00,,,0.00,VWS V14.01,2013-07-23 05:34:00,
2013-07-23 01:35:00,76.7,75.8,29.71,SSE,155,5.0,7.0,97,0.00,,,0.00,VWS V14.01,2013-07-23 05:35:00,
2013-07-23 01:36:00,76.7,75.8,29.71,SSE,163,5.0,8.0,97,0.00,,,0.00,VWS V14.01,2013-07-23 05:36:00,
2013-07-23 01:37:00,76.7,75.8,29.71,SSE,160,2.0,8.0,97,0.00,,,0.00,VWS V14.01,2013-07-23 05:37:00,
2013-07-23 01:40:00,76.7,75.8,29.71,SSE,155,5.0,8.0,97,0.00,,,0.00,VWS V14.01,2013-07-23 05:40:00,
2013-07-23 01:42:00,76.7,75.8,29.71,South,172,2.0,8.0,97,0.00,,,0.00,VWS V14.01,2013-07-23 05:42:00,
2013-07-23 01:43:00,76.7,75.8,29.71,SSE,168,5.0,8.0,97,0.00,,,0.00,VWS V14.01,2013-07-23 05:43:00,
2013-07-23 01:44:00,76.7,75.8,29.71,SSE,160,5.0,8.0,97,0.00,,,0.00,VWS V14.01,2013-07-23 05:44:00,
2013-07-23 01:47:00,76.7,75.8,29.71,SSE,163,6.0,8.0,97,0.00,,,0.00,VWS V14.01,2013-07-23 05:47:00,
2013-07-23 01:48:00,76.7,75.8,29.71,South,175,2.0,8.0,97,0.00,,,0.00,VWS V14.01,2013-07-23 05:48:00,
2013-07-23 01:49:00,76.7,75.8,29.71,SW,215,6.0,9.0,97,0.00,,,0.00,VWS V14.01,2013-07-23 05:49:00,
2013-07-23 01:52:00,76.7,75.8,29.71,SSE,147,11.0,11.0,97,0.00,,,0.00,VWS V14.01,2013-07-23 05:52:00,
2013-07-23 01:53:00,76.7,75.8,29.71,SE,140,8.0,11.0,97,0.00,,,0.00,VWS V14.01,2013-07-23 05:53:00,
2013-07-23 01:54:00,76.7,75.8,29.71,SSE,148,5.0,11.0,97,0.00,,,0.00,VWS V14.01,2013-07-23 05:54:00,
2013-07-23 01:58:00,76.7,75.8,29.71,SSE,153,4.0,11.0,97,0.00,,,0.00,VWS V14.01,2013-07-23 05:58:00,
2013-07-23 01:59:00,76.7,75.8,29.71,SSE,150,0.0,11.0,97,0.00,,,0.00,VWS V14.01,2013-07-23 05:59:00,
2013-07-23 02:01:00,76.7,75.8,29.71,SSW,203,7.0,11.0,97,0.00,,,0.00,VWS V14.01,2013-07-23 06:01:00,
2013-07-23 02:02:00,76.7,75.8,29.71,SSE,153,4.0,11.0,97,0.00,,,0.00,VWS V14.01,2013-07-23 06:02:00,
2013-07-23 02:04:00,76.7,76.1,29.70,SSE,153,5.0,11.0,98,0.00,,,0.00,VWS V14.01,2013-07-23 06:04:00,
2013-07-23 02:05:00,76.7,76.1,29.70,SSE,152,11.0,11.0,98,0.00,,,0.00,VWS V14.01,2013-07-23 06:05:00,
2013-07-23 02:06:00,76.7,76.1,29.70,SE,146,5.0,11.0,98,0.00,,,0.00,VWS V14.01,2013-07-23 06:06:00,
2013-07-23 02:09:00,76.7,76.1,29.70,SSE,165,5.0,11.0,98,0.00,,,0.00,VWS V14.01,2013-07-23 06:09:00,
2013-07-23 02:11:00,76.7,76.1,29.70,SSE,164,6.0,11.0,98,0.00,,,0.00,VWS V14.01,2013-07-23 06:11:00,
2013-07-23 02:14:00,76.7,76.1,29.70,SSE,158,4.0,11.0,98,0.00,,,0.00,VWS V14.01,2013-07-23 06:14:00,
2013-07-23 02:15:00,76.7,76.1,29.70,South,173,5.0,11.0,98,0.00,,,0.00,VWS V14.01,2013-07-23 06:15:00,
2013-07-23 02:16:00,76.7,76.1,29.70,SSE,147,2.0,11.0,98,0.00,,,0.00,VWS V14.01,2013-07-23 06:16:00,
2013-07-23 02:20:00,76.7,76.1,29.69,SSE,152,1.0,11.0,98,0.00,,,0.00,VWS V14.01,2013-07-23 06:20:00,
2013-07-23 02:21:00,76.7,76.1,29.69,SSE,147,6.0,11.0,98,0.00,,,0.00,VWS V14.01,2013-07-23 06:21:00,
2013-07-23 02:22:00,76.7,76.1,29.69,SSE,156,0.0,11.0,98,0.00,,,0.00,VWS V14.01,2013-07-23 06:22:00,
2013-07-23 02:23:00,76.7,76.1,29.69,SSE,152,7.0,11.0,98,0.00,,,0.00,VWS V14.01,2013-07-23 06:23:00,
2013-07-23 02:25:00,76.7,76.1,29.69,SSE,150,1.0,11.0,98,0.00,,,0.00,VWS V14.01,2013-07-23 06:25:00,
2013-07-23 02:27:00,76.5,75.9,29.69,SSE,162,4.0,11.0,98,0.00,,,0.00,VWS V14.01,2013-07-23 06:27:00,
2013-07-23 02:28:00,76.5,75.9,29.69,SSE,158,5.0,11.0,98,0.00,,,0.00,VWS V14.01,2013-07-23 06:28:00,
2013-07-23 02:31:00,76.5,75.9,29.69,South,172,6.0,11.0,98,0.00,,,0.00,VWS V14.01,2013-07-23 06:31:00,
2013-07-23 02:32:00,76.5,75.9,29.69,South,171,6.0,11.0,98,0.00,,,0.00,VWS V14.01,2013-07-23 06:32:00,
2013-07-23 02:33:00,76.7,76.1,29.69,South,175,8.0,11.0,98,0.00,,,0.00,VWS V14.01,2013-07-23 06:33:00,
2013-07-23 02:37:00,76.5,75.9,29.69,SSE,161,7.0,9.0,98,0.00,,,0.00,VWS V14.01,2013-07-23 06:37:00,
2013-07-23 02:38:00,76.5,75.9,29.69,South,175,5.0,10.0,98,0.00,,,0.00,VWS V14.01,2013-07-23 06:38:00,
2013-07-23 02:41:00,76.5,75.9,29.69,SSE,168,0.0,10.0,98,0.00,,,0.00,VWS V14.01,2013-07-23 06:41:00,
2013-07-23 02:42:00,76.5,75.9,29.69,South,171,2.0,10.0,98,0.00,,,0.00,VWS V14.01,2013-07-23 06:42:00,
2013-07-23 02:43:00,76.5,75.9,29.69,South,171,5.0,10.0,98,0.00,,,0.00,VWS V14.01,2013-07-23 06:43:00,
2013-07-23 02:46:00,76.5,75.9,29.69,South,172,5.0,10.0,98,0.00,,,0.00,VWS V14.01,2013-07-23 06:46:00,
2013-07-23 02:47:00,76.5,75.9,29.69,South,169,2.0,10.0,98,0.00,,,0.00,VWS V14.01,2013-07-23 06:47:00,
2013-07-23 02:51:00,76.5,75.9,29.68,South,177,5.0,10.0,98,0.01,,,0.01,VWS V14.01,2013-07-23 06:51:00,
2013-07-23 02:52:00,76.7,76.1,29.68,South,187,2.0,10.0,98,0.01,,,0.01,VWS V14.01,2013-07-23 06:52:00,
2013-07-23 02:53:00,76.7,76.1,29.68,South,171,2.0,10.0,98,0.01,,,0.01,VWS V14.01,2013-07-23 06:53:00,
2013-07-23 02:54:00,76.7,76.1,29.68,South,169,6.0,10.0,98,0.01,,,0.01,VWS V14.01,2013-07-23 06:54:00,
2013-07-23 02:57:00,76.7,76.1,29.68,South,172,6.0,10.0,98,0.01,,,0.01,VWS V14.01,2013-07-23 06:57:00,
2013-07-23 02:58:00,76.7,76.1,29.68,SSE,163,2.0,10.0,98,0.01,,,0.01,VWS V14.01,2013-07-23 06:58:00,
2013-07-23 02:59:00,76.7,76.1,29.68,SSE,164,5.0,10.0,98,0.01,,,0.01,VWS V14.01,2013-07-23 06:59:00,
2013-07-23 03:00:00,76.7,76.1,29.68,SSE,164,0.0,10.0,98,0.01,,,0.01,VWS V14.01,2013-07-23 07:00:00,
2013-07-23 03:01:00,76.7,76.1,29.68,SSW,200,1.0,10.0,98,0.01,,,0.01,VWS V14.01,2013-07-23 07:01:00,
2013-07-23 03:03:00,76.7,76.1,29.68,SSE,164,5.0,10.0,98,0.01,,,0.01,VWS V14.01,2013-07-23 07:03:00,
2013-07-23 03:04:00,76.7,76.1,29.67,SSE,159,5.0,10.0,98,0.01,,,0.01,VWS V14.01,2013-07-23 07:04:00,
2013-07-23 03:07:00,76.7,76.1,29.67,South,182,3.0,9.0,98,0.01,,,0.01,VWS V14.01,2013-07-23 07:07:00,
2013-07-23 03:08:00,76.7,76.1,29.67,SSE,167,1.0,9.0,98,0.01,,,0.01,VWS V14.01,2013-07-23 07:08:00,
2013-07-23 03:12:00,76.7,76.1,29.67,SSE,168,0.0,9.0,98,0.01,,,0.01,VWS V14.01,2013-07-23 07:12:00,
2013-07-23 03:13:00,76.7,76.1,29.67,South,169,7.0,9.0,98,0.01,,,0.01,VWS V14.01,2013-07-23 07:13:00,
2013-07-23 03:14:00,76.7,76.1,29.67,South,169,2.0,9.0,98,0.01,,,0.01,VWS V14.01,2013-07-23 07:14:00,
2013-07-23 03:17:00,76.7,76.1,29.67,South,178,8.0,9.0,98,0.01,,,0.01,VWS V14.01,2013-07-23 07:17:00,
2013-07-23 03:18:00,76.7,76.1,29.67,South,181,4.0,12.0,98,0.01,,,0.01,VWS V14.01,2013-07-23 07:18:00,
2013-07-23 03:19:00,76.7,76.1,29.68,SW,216,6.0,12.0,98,0.01,,,0.01,VWS V14.01,2013-07-23 07:19:00,
2013-07-23 03:23:00,76.7,76.1,29.68,SSW,198,2.0,12.0,98,0.01,,,0.01,VWS V14.01,2013-07-23 07:23:00,
2013-07-23 03:27:00,76.8,76.2,29.68,SSW,199,6.0,12.0,98,0.01,,,0.01,VWS V14.01,2013-07-23 07:27:00,
2013-07-23 03:28:00,76.8,76.2,29.68,SSW,200,5.0,12.0,98,0.01,,,0.01,VWS V14.01,2013-07-23 07:28:00,
2013-07-23 03:31:00,76.8,76.2,29.68,SSW,198,0.0,12.0,98,0.01,,,0.01,VWS V14.01,2013-07-23 07:31:00,
2013-07-23 03:32:00,76.8,76.2,29.68,SSW,194,1.0,12.0,98,0.01,,,0.01,VWS V14.01,2013-07-23 07:32:00,
2013-07-23 03:33:00,76.8,76.2,29.68,SSW,192,0.0,12.0,98,0.01,,,0.01,VWS V14.01,2013-07-23 07:33:00,
2013-07-23 03:35:00,76.8,76.2,29.67,SSW,194,2.0,6.0,98,0.01,,,0.01,VWS V14.01,2013-07-23 07:35:00,
2013-07-23 03:37:00,76.8,76.2,29.67,SSW,196,6.0,6.0,98,0.01,,,0.01,VWS V14.01,2013-07-23 07:37:00,
2013-07-23 03:38:00,76.8,76.2,29.67,South,189,4.0,8.0,98,0.01,,,0.01,VWS V14.01,2013-07-23 07:38:00,
2013-07-23 03:39:00,76.8,76.2,29.67,South,189,0.0,8.0,98,0.01,,,0.01,VWS V14.01,2013-07-23 07:39:00,
2013-07-23 03:45:00,76.8,76.2,29.67,SSW,209,3.0,10.0,98,0.01,,,0.01,VWS V14.01,2013-07-23 07:45:00,
2013-07-23 03:46:00,76.7,76.1,29.67,SSE,157,4.0,10.0,98,0.01,,,0.01,VWS V14.01,2013-07-23 07:46:00,
2013-07-23 03:48:00,76.7,76.1,29.67,SSW,198,3.0,10.0,98,0.01,,,0.01,VWS V14.01,2013-07-23 07:48:00,
2013-07-23 03:50:00,76.7,76.1,29.67,SSW,196,5.0,10.0,98,0.01,,,0.01,VWS V14.01,2013-07-23 07:50:00,
2013-07-23 03:52:00,76.7,76.1,29.67,SSW,196,5.0,10.0,98,0.01,,,0.01,VWS V14.01,2013-07-23 07:52:00,
2013-07-23 03:54:00,76.7,76.1,29.67,SSW,201,7.0,10.0,98,0.01,,,0.01,VWS V14.01,2013-07-23 07:54:00,
2013-07-23 03:56:00,76.7,76.1,29.67,SSW,198,4.0,10.0,98,0.01,,,0.01,VWS V14.01,2013-07-23 07:56:00,
2013-07-23 03:58:00,76.7,76.1,29.67,SSW,198,0.0,10.0,98,0.01,,,0.01,VWS V14.01,2013-07-23 07:58:00,
2013-07-23 03:59:00,76.7,76.1,29.67,SSW,193,9.0,10.0,98,0.01,,,0.01,VWS V14.01,2013-07-23 07:59:00,
2013-07-23 04:00:00,76.7,76.1,29.67,SSW,192,5.0,10.0,98,0.01,,,0.01,VWS V14.01,2013-07-23 08:00:00,
2013-07-23 04:01:00,76.7,76.1,29.67,SSW,192,0.0,10.0,98,0.01,,,0.01,VWS V14.01,2013-07-23 08:01:00,
2013-07-23 04:03:00,76.7,76.1,29.67,South,182,0.0,10.0,98,0.01,,,0.01,VWS V14.01,2013-07-23 08:03:00,
2013-07-23 04:05:00,76.7,76.1,29.66,South,183,0.0,10.0,98,0.01,,,0.01,VWS V14.01,2013-07-23 08:05:00,
2013-07-23 04:06:00,76.7,76.1,29.66,South,182,4.0,6.0,98,0.00,,,0.01,VWS V14.01,2013-07-23 08:06:00,
2013-07-23 04:07:00,76.7,76.1,29.66,South,183,0.0,6.0,98,0.00,,,0.01,VWS V14.01,2013-07-23 08:07:00,
2013-07-23 04:08:00,76.7,76.1,29.66,South,183,2.0,6.0,98,0.00,,,0.01,VWS V14.01,2013-07-23 08:08:00,
2013-07-23 04:11:00,76.7,76.1,29.66,South,184,4.0,6.0,98,0.00,,,0.01,VWS V14.01,2013-07-23 08:11:00,
2013-07-23 04:12:00,76.7,76.1,29.66,South,183,0.0,6.0,98,0.00,,,0.01,VWS V14.01,2013-07-23 08:12:00,
2013-07-23 04:13:00,76.7,76.1,29.66,South,184,0.0,6.0,98,0.00,,,0.01,VWS V14.01,2013-07-23 08:13:00,
2013-07-23 04:17:00,76.7,76.1,29.66,South,183,0.0,6.0,98,0.00,,,0.01,VWS V14.01,2013-07-23 08:17:00,
2013-07-23 04:18:00,76.7,76.1,29.66,South,183,0.0,6.0,98,0.01,,,0.02,VWS V14.01,2013-07-23 08:18:00,
2013-07-23 04:19:00,76.7,76.1,29.66,South,183,0.0,6.0,98,0.01,,,0.02,VWS V14.01,2013-07-23 08:19:00,
2013-07-23 04:21:00,76.7,76.1,29.67,South,183,0.0,6.0,98,0.01,,,0.02,VWS V14.01,2013-07-23 08:21:00,
2013-07-23 04:23:00,76.7,76.1,29.67,South,183,0.0,6.0,98,0.01,,,0.02,VWS V14.01,2013-07-23 08:23:00,
2013-07-23 04:24:00,76.7,76.1,29.67,South,183,0.0,6.0,98,0.01,,,0.02,VWS V14.01,2013-07-23 08:24:00,
2013-07-23 04:25:00,76.7,76.1,29.67,South,184,0.0,6.0,98,0.01,,,0.02,VWS V14.01,2013-07-23 08:25:00,
2013-07-23 04:26:00,76.7,76.1,29.67,South,183,0.0,6.0,98,0.01,,,0.02,VWS V14.01,2013-07-23 08:26:00,
2013-07-23 04:28:00,76.7,76.1,29.67,South,183,0.0,6.0,98,0.01,,,0.02,VWS V14.01,2013-07-23 08:28:00,
2013-07-23 04:31:00,76.7,76.1,29.67,South,182,0.0,6.0,98,0.01,,,0.02,VWS V14.01,2013-07-23 08:31:00,
2013-07-23 04:32:00,76.7,76.1,29.67,South,184,0.0,6.0,98,0.01,,,0.02,VWS V14.01,2013-07-23 08:32:00,
2013-07-23 04:33:00,76.7,76.1,29.67,South,183,3.0,7.0,98,0.01,,,0.02,VWS V14.01,2013-07-23 08:33:00,
2013-07-23 04:36:00,76.7,76.1,29.67,South,184,0.0,0.0,98,0.02,,,0.03,VWS V14.01,2013-07-23 08:36:00,
2013-07-23 04:37:00,76.5,75.9,29.67,South,183,0.0,0.0,98,0.02,,,0.03,VWS V14.01,2013-07-23 08:37:00,
2013-07-23 04:40:00,76.5,75.9,29.67,South,182,0.0,0.0,98,0.02,,,0.03,VWS V14.01,2013-07-23 08:40:00,
2013-07-23 04:41:00,76.5,75.9,29.67,South,184,0.0,0.0,98,0.03,,,0.04,VWS V14.01,2013-07-23 08:41:00,
2013-07-23 04:44:00,76.5,75.9,29.67,South,182,0.0,0.0,98,0.04,,,0.05,VWS V14.01,2013-07-23 08:44:00,
2013-07-23 04:45:00,76.3,75.7,29.67,South,182,0.0,0.0,98,0.05,,,0.06,VWS V14.01,2013-07-23 08:45:00,
2013-07-23 04:47:00,76.3,75.7,29.67,South,184,0.0,1.0,98,0.07,,,0.08,VWS V14.01,2013-07-23 08:47:00,
2013-07-23 04:48:00,76.3,75.7,29.67,NW,305,8.0,12.0,98,0.08,,,0.09,VWS V14.01,2013-07-23 08:48:00,
2013-07-23 04:49:00,76.0,75.1,29.67,WNW,300,3.0,12.0,97,0.10,,,0.11,VWS V14.01,2013-07-23 08:49:00,
2013-07-23 04:50:00,75.4,74.5,29.67,WNW,288,3.0,12.0,97,0.11,,,0.12,VWS V14.01,2013-07-23 08:50:00,
2013-07-23 04:52:00,74.7,73.5,29.67,WNW,300,5.0,12.0,96,0.12,,,0.13,VWS V14.01,2013-07-23 08:52:00,
2013-07-23 04:53:00,74.4,73.2,29.67,WNW,299,0.0,12.0,96,0.12,,,0.13,VWS V14.01,2013-07-23 08:53:00,
2013-07-23 04:56:00,73.7,72.8,29.67,WNW,299,0.0,12.0,97,0.13,,,0.14,VWS V14.01,2013-07-23 08:56:00,
2013-07-23 04:58:00,73.5,72.6,29.67,WNW,299,0.0,12.0,97,0.14,,,0.15,VWS V14.01,2013-07-23 08:58:00,
2013-07-23 04:59:00,73.5,72.6,29.67,WNW,300,0.0,12.0,97,0.15,,,0.16,VWS V14.01,2013-07-23 08:59:00,
2013-07-23 05:00:00,73.3,72.4,29.67,WNW,300,0.0,12.0,97,0.15,,,0.16,VWS V14.01,2013-07-23 09:00:00,
2013-07-23 05:02:00,73.3,72.4,29.67,WNW,282,0.0,12.0,97,0.17,,,0.18,VWS V14.01,2013-07-23 09:02:00,
2013-07-23 05:04:00,73.2,72.6,29.67,WNW,284,0.0,12.0,98,0.18,,,0.19,VWS V14.01,2013-07-23 09:04:00,
2013-07-23 05:05:00,73.2,72.6,29.66,WNW,284,0.0,12.0,98,0.19,,,0.20,VWS V14.01,2013-07-23 09:05:00,
2013-07-23 05:07:00,73.2,72.6,29.66,WNW,284,0.0,0.0,98,0.20,,,0.21,VWS V14.01,2013-07-23 09:07:00,
2013-07-23 05:10:00,73.2,72.6,29.66,WNW,282,0.0,0.0,98,0.21,,,0.22,VWS V14.01,2013-07-23 09:10:00,
2013-07-23 05:11:00,73.2,72.6,29.66,WNW,282,0.0,0.0,98,0.21,,,0.22,VWS V14.01,2013-07-23 09:11:00,
2013-07-23 05:12:00,73.0,72.4,29.66,WNW,283,0.0,0.0,98,0.21,,,0.22,VWS V14.01,2013-07-23 09:12:00,
2013-07-23 05:13:00,73.0,72.4,29.66,WNW,284,0.0,0.0,98,0.22,,,0.23,VWS V14.01,2013-07-23 09:13:00,
2013-07-23 05:15:00,73.0,72.4,29.66,WNW,283,0.0,0.0,98,0.22,,,0.23,VWS V14.01,2013-07-23 09:15:00,
2013-07-23 05:16:00,73.0,72.4,29.66,WNW,282,0.0,0.0,98,0.22,,,0.23,VWS V14.01,2013-07-23 09:16:00,
2013-07-23 05:18:00,73.0,72.4,29.66,WNW,284,0.0,0.0,98,0.22,,,0.23,VWS V14.01,2013-07-23 09:18:00,
2013-07-23 05:21:00,73.0,72.4,29.66,WNW,282,0.0,0.0,98,0.22,,,0.23,VWS V14.01,2013-07-23 09:21:00,
2013-07-23 05:22:00,73.0,72.4,29.66,WNW,284,0.0,0.0,98,0.22,,,0.23,VWS V14.01,2013-07-23 09:22:00,
2013-07-23 05:23:00,73.0,72.4,29.66,West,281,0.0,0.0,98,0.22,,,0.23,VWS V14.01,2013-07-23 09:23:00,
2013-07-23 05:24:00,72.8,72.2,29.66,WNW,283,0.0,0.0,98,0.22,,,0.23,VWS V14.01,2013-07-23 09:24:00,
2013-07-23 05:26:00,72.8,72.2,29.66,West,281,0.0,0.0,98,0.22,,,0.23,VWS V14.01,2013-07-23 09:26:00,
2013-07-23 05:28:00,72.8,72.2,29.66,WNW,282,0.0,0.0,98,0.22,,,0.23,VWS V14.01,2013-07-23 09:28:00,
2013-07-23 05:29:00,72.8,72.2,29.66,WNW,284,0.0,0.0,98,0.22,,,0.23,VWS V14.01,2013-07-23 09:29:00,
2013-07-23 05:32:00,72.8,72.2,29.66,WNW,284,0.0,0.0,98,0.22,,,0.23,VWS V14.01,2013-07-23 09:32:00,
2013-07-23 05:33:00,72.8,72.2,29.66,WNW,283,0.0,0.0,98,0.22,,,0.23,VWS V14.01,2013-07-23 09:33:00,
2013-07-23 05:34:00,72.8,72.2,29.65,WNW,283,0.0,0.0,98,0.22,,,0.23,VWS V14.01,2013-07-23 09:34:00,
2013-07-23 05:37:00,72.7,72.1,29.65,West,281,0.0,0.0,98,0.20,,,0.23,VWS V14.01,2013-07-23 09:37:00,
2013-07-23 05:38:00,72.7,72.1,29.65,WNW,284,0.0,0.0,98,0.20,,,0.23,VWS V14.01,2013-07-23 09:38:00,
2013-07-23 05:39:00,72.7,72.1,29.65,WNW,282,0.0,0.0,98,0.20,,,0.23,VWS V14.01,2013-07-23 09:39:00,
2013-07-23 05:40:00,72.7,72.1,29.65,WNW,284,0.0,0.0,98,0.20,,,0.23,VWS V14.01,2013-07-23 09:40:00,
2013-07-23 05:42:00,72.7,72.1,29.65,WNW,282,0.0,0.0,98,0.20,,,0.23,VWS V14.01,2013-07-23 09:42:00,
2013-07-23 05:44:00,72.7,72.1,29.65,WNW,282,0.0,0.0,98,0.20,,,0.23,VWS V14.01,2013-07-23 09:44:00,
2013-07-23 05:45:00,72.7,72.1,29.65,WNW,282,0.0,0.0,98,0.20,,,0.23,VWS V14.01,2013-07-23 09:45:00,
2013-07-23 05:47:00,72.7,72.1,29.65,WNW,282,0.0,3.0,98,0.20,,,0.23,VWS V14.01,2013-07-23 09:47:00,
2013-07-23 05:49:00,72.7,72.1,29.65,WNW,284,0.0,3.0,98,0.20,,,0.23,VWS V14.01,2013-07-23 09:49:00,
2013-07-23 05:50:00,72.7,72.1,29.65,WNW,282,0.0,3.0,98,0.20,,,0.23,VWS V14.01,2013-07-23 09:50:00,
2013-07-23 05:51:00,72.7,72.1,29.65,WNW,282,0.0,3.0,98,0.20,,,0.23,VWS V14.01,2013-07-23 09:51:00,
2013-07-23 05:52:00,72.7,72.1,29.65,WNW,282,0.0,3.0,98,0.20,,,0.23,VWS V14.01,2013-07-23 09:52:00,
2013-07-23 05:53:00,72.7,72.1,29.65,WNW,282,0.0,3.0,98,0.20,,,0.23,VWS V14.01,2013-07-23 09:53:00,
2013-07-23 05:55:00,72.7,72.1,29.65,WNW,283,0.0,3.0,98,0.20,,,0.23,VWS V14.01,2013-07-23 09:55:00,
2013-07-23 05:56:00,72.7,72.1,29.65,WNW,284,0.0,3.0,98,0.20,,,0.23,VWS V14.01,2013-07-23 09:56:00,
2013-07-23 05:57:00,72.7,72.1,29.65,WNW,283,0.0,3.0,98,0.20,,,0.23,VWS V14.01,2013-07-23 09:57:00,
2013-07-23 06:01:00,72.7,72.1,29.65,West,279,0.0,3.0,98,0.20,,,0.23,VWS V14.01,2013-07-23 10:01:00,
2013-07-23 06:02:00,72.7,72.1,29.65,West,278,0.0,3.0,98,0.20,,,0.23,VWS V14.01,2013-07-23 10:02:00,
2013-07-23 06:03:00,72.7,72.1,29.65,West,278,0.0,3.0,98,0.20,,,0.23,VWS V14.01,2013-07-23 10:03:00,
2013-07-23 06:04:00,72.7,72.1,29.65,West,279,0.0,3.0,98,0.20,,,0.23,VWS V14.01,2013-07-23 10:04:00,
2013-07-23 06:06:00,72.7,72.1,29.65,West,279,0.0,0.0,98,0.03,,,0.23,VWS V14.01,2013-07-23 10:06:00,
2013-07-23 06:08:00,72.7,72.1,29.65,West,278,0.0,0.0,98,0.03,,,0.23,VWS V14.01,2013-07-23 10:08:00,
2013-07-23 06:09:00,72.7,72.1,29.65,West,279,0.0,0.0,98,0.03,,,0.23,VWS V14.01,2013-07-23 10:09:00,
2013-07-23 06:11:00,72.7,72.1,29.65,West,273,0.0,0.0,98,0.03,,,0.23,VWS V14.01,2013-07-23 10:11:00,
2013-07-23 06:12:00,72.8,72.2,29.65,WSW,257,0.0,0.0,98,0.03,,,0.23,VWS V14.01,2013-07-23 10:12:00,
2013-07-23 06:14:00,72.8,72.2,29.65,WSW,248,0.0,2.0,98,0.03,,,0.23,VWS V14.01,2013-07-23 10:14:00,
2013-07-23 06:16:00,72.8,72.2,29.65,SSE,168,0.0,2.0,98,0.03,,,0.23,VWS V14.01,2013-07-23 10:16:00,
2013-07-23 06:17:00,72.8,72.2,29.65,South,174,5.0,9.0,98,0.03,,,0.23,VWS V14.01,2013-07-23 10:17:00,
2013-07-23 06:18:00,72.8,72.2,29.65,South,174,0.0,9.0,98,0.03,,,0.23,VWS V14.01,2013-07-23 10:18:00,
2013-07-23 06:22:00,72.8,72.2,29.65,South,175,0.0,9.0,98,0.03,,,0.23,VWS V14.01,2013-07-23 10:22:00,
2013-07-23 06:23:00,72.8,72.2,29.65,South,173,0.0,9.0,98,0.03,,,0.23,VWS V14.01,2013-07-23 10:23:00,
2013-07-23 06:25:00,72.8,72.2,29.65,South,174,0.0,9.0,98,0.03,,,0.23,VWS V14.01,2013-07-23 10:25:00,
2013-07-23 06:28:00,73.0,72.4,29.65,South,174,0.0,9.0,98,0.03,,,0.23,VWS V14.01,2013-07-23 10:28:00,
2013-07-23 06:30:00,73.0,72.4,29.65,South,175,0.0,9.0,98,0.03,,,0.23,VWS V14.01,2013-07-23 10:30:00,
2013-07-23 06:31:00,73.0,72.4,29.65,South,175,0.0,9.0,98,0.03,,,0.23,VWS V14.01,2013-07-23 10:31:00,
2013-07-23 06:34:00,73.0,72.4,29.65,South,173,0.0,9.0,98,0.03,,,0.23,VWS V14.01,2013-07-23 10:34:00,
2013-07-23 06:35:00,73.0,72.4,29.65,South,175,0.0,9.0,98,0.03,,,0.23,VWS V14.01,2013-07-23 10:35:00,
2013-07-23 06:36:00,73.0,72.4,29.65,South,173,0.0,0.0,98,0.00,,,0.23,VWS V14.01,2013-07-23 10:36:00,
2013-07-23 06:38:00,73.0,72.4,29.65,South,173,0.0,0.0,98,0.00,,,0.23,VWS V14.01,2013-07-23 10:38:00,
2013-07-23 06:39:00,73.0,72.4,29.65,South,173,0.0,0.0,98,0.00,,,0.23,VWS V14.01,2013-07-23 10:39:00,
2013-07-23 06:41:00,73.0,72.4,29.65,South,174,0.0,0.0,98,0.00,,,0.23,VWS V14.01,2013-07-23 10:41:00,
2013-07-23 06:42:00,73.0,72.4,29.65,South,174,0.0,0.0,98,0.00,,,0.23,VWS V14.01,2013-07-23 10:42:00,
2013-07-23 06:44:00,73.0,72.4,29.65,South,173,0.0,0.0,98,0.00,,,0.23,VWS V14.01,2013-07-23 10:44:00,
2013-07-23 06:45:00,73.0,72.4,29.65,South,175,0.0,0.0,98,0.00,,,0.23,VWS V14.01,2013-07-23 10:45:00,
2013-07-23 06:50:00,73.0,72.4,29.64,South,174,0.0,0.0,98,0.00,,,0.23,VWS V14.01,2013-07-23 10:50:00,
2013-07-23 06:52:00,73.2,72.6,29.64,South,174,0.0,0.0,98,0.00,,,0.23,VWS V14.01,2013-07-23 10:52:00,
2013-07-23 06:53:00,73.2,72.6,29.64,South,174,0.0,0.0,98,0.00,,,0.23,VWS V14.01,2013-07-23 10:53:00,
2013-07-23 06:55:00,73.2,72.6,29.64,South,174,0.0,0.0,98,0.00,,,0.23,VWS V14.01,2013-07-23 10:55:00,
2013-07-23 06:59:00,73.2,72.6,29.64,South,174,0.0,0.0,98,0.00,,,0.23,VWS V14.01,2013-07-23 10:59:00,
2013-07-23 07:00:00,73.2,72.6,29.64,South,173,0.0,0.0,98,0.00,,,0.23,VWS V14.01,2013-07-23 11:00:00,
2013-07-23 07:02:00,73.3,72.7,29.64,South,173,0.0,0.0,98,0.00,,,0.23,VWS V14.01,2013-07-23 11:02:00,
2013-07-23 07:05:00,73.3,72.7,29.64,South,173,0.0,0.0,98,0.00,,,0.23,VWS V14.01,2013-07-23 11:05:00,
2013-07-23 07:06:00,73.3,72.7,29.64,South,173,0.0,0.0,98,0.00,,,0.23,VWS V14.01,2013-07-23 11:06:00,
2013-07-23 07:10:00,73.5,72.9,29.64,South,174,0.0,0.0,98,0.00,,,0.23,VWS V14.01,2013-07-23 11:10:00,
2013-07-23 07:12:00,73.5,72.9,29.64,South,174,0.0,0.0,98,0.00,,,0.23,VWS V14.01,2013-07-23 11:12:00,
2013-07-23 07:13:00,73.5,72.9,29.64,South,173,5.0,7.0,98,0.00,,,0.23,VWS V14.01,2013-07-23 11:13:00,
2013-07-23 07:17:00,73.7,73.1,29.64,South,173,0.0,7.0,98,0.00,,,0.23,VWS V14.01,2013-07-23 11:17:00,
2013-07-23 07:18:00,73.7,73.1,29.64,South,174,0.0,7.0,98,0.00,,,0.23,VWS V14.01,2013-07-23 11:18:00,
2013-07-23 07:20:00,73.7,73.1,29.64,South,174,0.0,7.0,98,0.00,,,0.23,VWS V14.01,2013-07-23 11:20:00,
2013-07-23 07:23:00,73.9,73.3,29.64,South,173,0.0,7.0,98,0.00,,,0.23,VWS V14.01,2013-07-23 11:23:00,
2013-07-23 07:24:00,73.9,73.3,29.64,South,174,0.0,7.0,98,0.00,,,0.23,VWS V14.01,2013-07-23 11:24:00,
2013-07-23 07:25:00,73.9,73.3,29.64,South,174,0.0,7.0,98,0.00,,,0.23,VWS V14.01,2013-07-23 11:25:00,
2013-07-23 07:27:00,73.9,73.3,29.64,South,175,0.0,7.0,98,0.00,,,0.23,VWS V14.01,2013-07-23 11:27:00,
2013-07-23 07:29:00,73.9,73.3,29.64,South,174,0.0,7.0,98,0.00,,,0.23,VWS V14.01,2013-07-23 11:29:00,
2013-07-23 07:30:00,74.0,73.4,29.64,South,174,0.0,7.0,98,0.00,,,0.23,VWS V14.01,2013-07-23 11:30:00,
2013-07-23 07:31:00,74.0,73.4,29.64,South,174,0.0,7.0,98,0.00,,,0.23,VWS V14.01,2013-07-23 11:31:00,
2013-07-23 07:32:00,74.0,73.4,29.64,South,175,0.0,7.0,98,0.00,,,0.23,VWS V14.01,2013-07-23 11:32:00,
2013-07-23 07:33:00,74.0,73.4,29.64,South,174,0.0,7.0,98,0.00,,,0.23,VWS V14.01,2013-07-23 11:33:00,
2013-07-23 07:34:00,74.0,73.4,29.64,South,174,0.0,7.0,98,0.00,,,0.23,VWS V14.01,2013-07-23 11:34:00,
2013-07-23 07:37:00,74.2,73.6,29.64,South,175,4.0,7.0,98,0.00,,,0.23,VWS V14.01,2013-07-23 11:37:00,
2013-07-23 07:38:00,74.2,73.6,29.64,South,175,4.0,7.0,98,0.00,,,0.23,VWS V14.01,2013-07-23 11:38:00,
2013-07-23 07:39:00,74.2,73.6,29.64,South,178,5.0,7.0,98,0.00,,,0.23,VWS V14.01,2013-07-23 11:39:00,
2013-07-23 07:40:00,74.2,73.6,29.64,South,178,4.0,7.0,98,0.00,,,0.23,VWS V14.01,2013-07-23 11:40:00,
2013-07-23 07:43:00,74.2,73.6,29.64,South,178,5.0,7.0,98,0.00,,,0.23,VWS V14.01,2013-07-23 11:43:00,
2013-07-23 07:44:00,74.2,73.6,29.64,South,180,3.0,7.0,98,0.00,,,0.23,VWS V14.01,2013-07-23 11:44:00,
2013-07-23 07:45:00,74.2,73.6,29.64,South,180,0.0,7.0,98,0.00,,,0.23,VWS V14.01,2013-07-23 11:45:00,
2013-07-23 07:46:00,74.2,73.6,29.64,South,180,0.0,7.0,98,0.00,,,0.23,VWS V14.01,2013-07-23 11:46:00,
2013-07-23 07:49:00,74.2,73.6,29.64,South,180,0.0,7.0,98,0.00,,,0.23,VWS V14.01,2013-07-23 11:49:00,
2013-07-23 07:50:00,74.2,73.6,29.64,South,181,0.0,7.0,98,0.00,,,0.23,VWS V14.01,2013-07-23 11:50:00,
2013-07-23 07:51:00,74.4,73.8,29.64,South,180,0.0,7.0,98,0.00,,,0.23,VWS V14.01,2013-07-23 11:51:00,
2013-07-23 07:52:00,74.4,73.8,29.64,South,180,0.0,7.0,98,0.00,,,0.23,VWS V14.01,2013-07-23 11:52:00,
2013-07-23 07:53:00,74.6,74.0,29.64,South,181,6.0,7.0,98,0.00,,,0.23,VWS V14.01,2013-07-23 11:53:00,
2013-07-23 07:56:00,74.7,74.1,29.64,South,182,0.0,7.0,98,0.00,,,0.23,VWS V14.01,2013-07-23 11:56:00,
2013-07-23 07:57:00,74.9,74.3,29.64,South,182,0.0,7.0,98,0.00,,,0.23,VWS V14.01,2013-07-23 11:57:00,
2013-07-23 07:58:00,74.9,74.3,29.64,South,182,0.0,7.0,98,0.00,,,0.23,VWS V14.01,2013-07-23 11:58:00,
2013-07-23 08:00:00,74.9,74.3,29.64,South,182,0.0,7.0,98,0.00,,,0.23,VWS V14.01,2013-07-23 12:00:00,
2013-07-23 08:01:00,74.9,74.3,29.64,South,182,0.0,7.0,98,0.00,,,0.23,VWS V14.01,2013-07-23 12:01:00,
2013-07-23 08:02:00,75.1,74.5,29.64,SW,227,8.0,8.0,98,0.00,,,0.23,VWS V14.01,2013-07-23 12:02:00,
2013-07-23 08:04:00,75.1,74.5,29.64,SW,227,0.0,8.0,98,0.00,,,0.23,VWS V14.01,2013-07-23 12:04:00,
2013-07-23 08:06:00,75.3,74.7,29.63,WSW,252,5.0,9.0,98,0.00,,,0.23,VWS V14.01,2013-07-23 12:06:00,
2013-07-23 08:07:00,75.4,74.8,29.63,WSW,244,4.0,9.0,98,0.00,,,0.23,VWS V14.01,2013-07-23 12:07:00,
2013-07-23 08:08:00,75.6,75.0,29.63,WSW,244,0.0,9.0,98,0.00,,,0.23,VWS V14.01,2013-07-23 12:08:00,
2013-07-23 08:10:00,75.8,75.2,29.63,WSW,238,5.0,9.0,98,0.00,,,0.23,VWS V14.01,2013-07-23 12:10:00,
2013-07-23 08:13:00,76.1,75.5,29.63,WSW,241,6.0,9.0,98,0.00,,,0.23,VWS V14.01,2013-07-23 12:13:00,
2013-07-23 08:17:00,76.5,75.9,29.63,SW,232,5.0,9.0,98,0.00,,,0.23,VWS V14.01,2013-07-23 12:17:00,
2013-07-23 08:18:00,76.5,75.9,29.63,SW,233,6.0,9.0,98,0.00,,,0.23,VWS V14.01,2013-07-23 12:18:00,
2013-07-23 08:19:00,76.7,76.1,29.63,SW,233,3.0,9.0,98,0.00,,,0.23,VWS V14.01,2013-07-23 12:19:00,
2013-07-23 08:23:00,76.7,75.8,29.62,West,264,4.0,9.0,97,0.00,,,0.23,VWS V14.01,2013-07-23 12:23:00,
2013-07-23 08:24:00,76.5,75.6,29.62,West,267,5.0,9.0,97,0.00,,,0.23,VWS V14.01,2013-07-23 12:24:00,
2013-07-23 08:26:00,76.5,75.3,29.62,West,264,2.0,9.0,96,0.00,,,0.23,VWS V14.01,2013-07-23 12:26:00,
2013-07-23 08:27:00,76.3,75.1,29.62,West,265,4.0,9.0,96,0.00,,,0.23,VWS V14.01,2013-07-23 12:27:00,
2013-07-23 08:28:00,76.3,75.1,29.62,West,268,7.0,9.0,96,0.00,,,0.23,VWS V14.01,2013-07-23 12:28:00,
2013-07-23 08:29:00,76.3,75.1,29.62,West,275,9.0,9.0,96,0.00,,,0.23,VWS V14.01,2013-07-23 12:29:00,
2013-07-23 08:31:00,76.3,75.1,29.62,West,270,2.0,9.0,96,0.00,,,0.23,VWS V14.01,2013-07-23 12:31:00,
2013-07-23 08:33:00,76.1,74.9,29.62,West,259,3.0,9.0,96,0.00,,,0.23,VWS V14.01,2013-07-23 12:33:00,
2013-07-23 08:34:00,76.0,74.8,29.62,WNW,283,5.0,9.0,96,0.00,,,0.23,VWS V14.01,2013-07-23 12:34:00,
2013-07-23 08:35:00,76.0,74.8,29.62,West,273,8.0,11.0,96,0.00,,,0.23,VWS V14.01,2013-07-23 12:35:00,
2013-07-23 08:36:00,76.0,74.8,29.62,West,267,4.0,12.0,96,0.00,,,0.23,VWS V14.01,2013-07-23 12:36:00,
2013-07-23 08:38:00,76.1,74.9,29.62,WSW,245,6.0,12.0,96,0.00,,,0.23,VWS V14.01,2013-07-23 12:38:00,
2013-07-23 08:41:00,76.7,75.2,29.62,West,265,3.0,12.0,95,0.00,,,0.23,VWS V14.01,2013-07-23 12:41:00,
2013-07-23 08:42:00,76.8,75.3,29.62,West,264,0.0,12.0,95,0.00,,,0.23,VWS V14.01,2013-07-23 12:42:00,
2013-07-23 08:44:00,77.4,75.5,29.62,SW,234,7.0,12.0,94,0.00,,,0.23,VWS V14.01,2013-07-23 12:44:00,
2013-07-23 08:46:00,77.2,75.0,29.62,SW,225,3.0,12.0,93,0.00,,,0.23,VWS V14.01,2013-07-23 12:46:00,
2013-07-23 08:47:00,77.2,75.0,29.62,WSW,247,6.0,12.0,93,0.00,,,0.23,VWS V14.01,2013-07-23 12:47:00,
2013-07-23 08:50:00,77.6,74.8,29.62,West,269,5.0,12.0,91,0.00,,,0.23,VWS V14.01,2013-07-23 12:50:00,
2013-07-23 08:54:00,77.2,73.7,29.62,WSW,255,7.0,12.0,89,0.00,,,0.23,VWS V14.01,2013-07-23 12:54:00,
2013-07-23 08:56:00,77.6,74.1,29.62,WNW,287,6.0,12.0,89,0.00,,,0.23,VWS V14.01,2013-07-23 12:56:00,
2013-07-23 08:58:00,77.6,73.8,29.62,West,270,5.0,12.0,88,0.00,,,0.23,VWS V14.01,2013-07-23 12:58:00,
2013-07-23 09:00:00,77.7,74.2,29.62,WSW,242,8.0,14.0,89,0.00,,,0.23,VWS V14.01,2013-07-23 13:00:00,
2013-07-23 09:03:00,77.9,74.1,29.62,WSW,257,9.0,14.0,88,0.00,,,0.23,VWS V14.01,2013-07-23 13:03:00,
2013-07-23 09:04:00,77.9,74.1,29.62,West,281,10.0,14.0,88,0.00,,,0.23,VWS V14.01,2013-07-23 13:04:00,
2013-07-23 09:05:00,77.9,73.7,29.62,West,268,9.0,14.0,87,0.00,,,0.23,VWS V14.01,2013-07-23 13:05:00,
2013-07-23 09:06:00,77.9,73.7,29.62,WSW,255,11.0,15.0,87,0.00,,,0.23,VWS V14.01,2013-07-23 13:06:00,
2013-07-23 09:10:00,78.1,73.6,29.62,NW,311,13.0,16.0,86,0.00,,,0.23,VWS V14.01,2013-07-23 13:10:00,
2013-07-23 09:11:00,78.3,74.1,29.62,West,276,9.0,16.0,87,0.00,,,0.23,VWS V14.01,2013-07-23 13:11:00,
2013-07-23 09:12:00,78.5,74.0,29.62,NNW,329,7.0,16.0,86,0.00,,,0.23,VWS V14.01,2013-07-23 13:12:00,
2013-07-23 09:17:00,78.5,73.3,29.62,WSW,255,7.0,16.0,84,0.00,,,0.23,VWS V14.01,2013-07-23 13:17:00,
2013-07-23 09:18:00,78.6,73.7,29.62,SW,232,10.0,16.0,85,0.00,,,0.23,VWS V14.01,2013-07-23 13:18:00,
2013-07-23 09:20:00,78.8,73.6,29.61,WNW,285,3.0,16.0,84,0.00,,,0.23,VWS V14.01,2013-07-23 13:20:00,
2013-07-23 09:21:00,78.8,73.6,29.61,WSW,248,7.0,16.0,84,0.00,,,0.23,VWS V14.01,2013-07-23 13:21:00,
2013-07-23 09:23:00,78.6,73.0,29.61,WNW,282,7.0,16.0,83,0.00,,,0.23,VWS V14.01,2013-07-23 13:23:00,
2013-07-23 09:25:00,78.6,73.0,29.61,West,260,11.0,16.0,83,0.00,,,0.23,VWS V14.01,2013-07-23 13:25:00,
2013-07-23 09:26:00,78.6,73.4,29.61,West,277,9.0,16.0,84,0.00,,,0.23,VWS V14.01,2013-07-23 13:26:00,
2013-07-23 09:28:00,79.0,73.4,29.61,WSW,258,12.0,16.0,83,0.00,,,0.23,VWS V14.01,2013-07-23 13:28:00,
2013-07-23 09:30:00,79.4,73.4,29.61,WNW,288,6.0,16.0,82,0.00,,,0.23,VWS V14.01,2013-07-23 13:30:00,
2013-07-23 09:34:00,79.6,73.3,29.61,WSW,253,9.0,16.0,81,0.00,,,0.23,VWS V14.01,2013-07-23 13:34:00,
2013-07-23 09:35:00,79.6,72.9,29.61,NW,310,9.0,16.0,80,0.00,,,0.23,VWS V14.01,2013-07-23 13:35:00,
2013-07-23 09:36:00,79.6,72.9,29.61,West,275,3.0,9.0,80,0.00,,,0.23,VWS V14.01,2013-07-23 13:36:00,
2013-07-23 09:40:00,80.3,74.3,29.61,SW,235,6.0,13.0,82,0.00,,,0.23,VWS V14.01,2013-07-23 13:40:00,
2013-07-23 09:41:00,80.3,73.9,29.61,West,269,5.0,13.0,81,0.00,,,0.23,VWS V14.01,2013-07-23 13:41:00,
2013-07-23 09:42:00,80.3,73.6,29.61,WSW,254,7.0,13.0,80,0.00,,,0.23,VWS V14.01,2013-07-23 13:42:00,
2013-07-23 09:44:00,80.5,74.1,29.61,West,263,5.0,13.0,81,0.00,,,0.23,VWS V14.01,2013-07-23 13:44:00,
2013-07-23 09:45:00,80.5,73.8,29.61,WNW,285,8.0,13.0,80,0.00,,,0.23,VWS V14.01,2013-07-23 13:45:00,
2013-07-23 09:48:00,80.5,73.4,29.61,SW,223,8.0,13.0,79,0.00,,,0.23,VWS V14.01,2013-07-23 13:48:00,
2013-07-23 09:49:00,80.5,73.4,29.61,WNW,298,3.0,13.0,79,0.00,,,0.23,VWS V14.01,2013-07-23 13:49:00,
2013-07-23 09:52:00,80.5,73.8,29.61,WNW,294,8.0,13.0,80,0.00,,,0.23,VWS V14.01,2013-07-23 13:52:00,
2013-07-23 09:54:00,80.3,73.6,29.61,West,273,4.0,13.0,80,0.00,,,0.23,VWS V14.01,2013-07-23 13:54:00,
2013-07-23 09:55:00,80.3,73.9,29.61,West,266,7.0,13.0,81,0.00,,,0.23,VWS V14.01,2013-07-23 13:55:00,
2013-07-23 09:56:00,80.5,74.1,29.61,WNW,283,9.0,13.0,81,0.00,,,0.23,VWS V14.01,2013-07-23 13:56:00,
2013-07-23 09:57:00,80.5,74.1,29.61,WNW,288,8.0,13.0,81,0.00,,,0.23,VWS V14.01,2013-07-23 13:57:00,
2013-07-23 09:58:00,80.5,73.8,29.61,NW,308,5.0,13.0,80,0.00,,,0.23,VWS V14.01,2013-07-23 13:58:00,
2013-07-23 10:00:00,80.7,74.0,29.61,West,276,10.0,13.0,80,0.00,,,0.23,VWS V14.01,2013-07-23 14:00:00,
2013-07-23 10:01:00,80.5,73.4,29.61,West,274,8.0,13.0,79,0.00,,,0.23,VWS V14.01,2013-07-23 14:01:00,
2013-07-23 10:04:00,80.7,73.6,29.61,West,276,8.0,14.0,79,0.00,,,0.23,VWS V14.01,2013-07-23 14:04:00,
2013-07-23 10:05:00,80.7,73.6,29.61,West,273,4.0,14.0,79,0.00,,,0.23,VWS V14.01,2013-07-23 14:05:00,
2013-07-23 10:06:00,80.9,74.2,29.61,West,274,6.0,7.0,80,0.00,,,0.23,VWS V14.01,2013-07-23 14:06:00,
2013-07-23 10:08:00,80.9,73.4,29.61,West,266,4.0,12.0,78,0.00,,,0.23,VWS V14.01,2013-07-23 14:08:00,
2013-07-23 10:10:00,81.2,74.4,29.61,West,259,5.0,12.0,80,0.00,,,0.23,VWS V14.01,2013-07-23 14:10:00,
2013-07-23 10:12:00,81.6,74.1,29.61,West,262,8.0,12.0,78,0.00,,,0.23,VWS V14.01,2013-07-23 14:12:00,
2013-07-23 10:15:00,81.6,73.7,29.61,West,281,11.0,14.0,77,0.00,,,0.23,VWS V14.01,2013-07-23 14:15:00,
2013-07-23 10:16:00,81.4,73.1,29.61,WNW,290,10.0,14.0,76,0.00,,,0.23,VWS V14.01,2013-07-23 14:16:00,
2013-07-23 10:17:00,81.2,72.9,29.61,West,260,9.0,14.0,76,0.00,,,0.23,VWS V14.01,2013-07-23 14:17:00,
2013-07-23 10:18:00,81.2,73.3,29.61,West,265,8.0,14.0,77,0.00,,,0.23,VWS V14.01,2013-07-23 14:18:00,
2013-07-23 10:19:00,81.2,73.3,29.61,WNW,296,8.0,14.0,77,0.00,,,0.23,VWS V14.01,2013-07-23 14:19:00,
2013-07-23 10:22:00,81.1,72.8,29.61,West,271,8.0,14.0,76,0.00,,,0.23,VWS V14.01,2013-07-23 14:22:00,
2013-07-23 10:24:00,81.1,73.2,29.61,WSW,254,9.0,14.0,77,0.00,,,0.23,VWS V14.01,2013-07-23 14:24:00,
2013-07-23 10:25:00,81.2,73.7,29.61,WSW,242,8.0,14.0,78,0.00,,,0.23,VWS V14.01,2013-07-23 14:25:00,
2013-07-23 10:26:00,81.2,73.3,29.61,West,264,8.0,14.0,77,0.00,,,0.23,VWS V14.01,2013-07-23 14:26:00,
2013-07-23 10:28:00,81.8,73.9,29.61,SW,232,10.0,14.0,77,0.00,,,0.23,VWS V14.01,2013-07-23 14:28:00,
2013-07-23 10:31:00,82.2,74.3,29.61,WSW,243,9.0,14.0,77,0.00,,,0.23,VWS V14.01,2013-07-23 14:31:00,
2013-07-23 10:33:00,82.4,74.5,29.61,WSW,250,12.0,14.0,77,0.00,,,0.23,VWS V14.01,2013-07-23 14:33:00,
2013-07-23 10:34:00,82.2,73.5,29.61,WSW,256,8.0,14.0,75,0.00,,,0.23,VWS V14.01,2013-07-23 14:34:00,
2013-07-23 10:35:00,82.2,73.9,29.61,West,267,7.0,14.0,76,0.00,,,0.23,VWS V14.01,2013-07-23 14:35:00,
2013-07-23 10:38:00,82.6,73.9,29.61,WNW,284,10.0,14.0,75,0.00,,,0.23,VWS V14.01,2013-07-23 14:38:00,
2013-07-23 10:40:00,82.2,73.1,29.61,West,279,12.0,14.0,74,0.00,,,0.23,VWS V14.01,2013-07-23 14:40:00,
2013-07-23 10:41:00,82.0,73.3,29.61,West,265,7.0,14.0,75,0.00,,,0.23,VWS V14.01,2013-07-23 14:41:00,
2013-07-23 10:44:00,82.0,73.7,29.61,WNW,300,7.0,14.0,76,0.00,,,0.23,VWS V14.01,2013-07-23 14:44:00,
2013-07-23 10:45:00,82.0,73.7,29.61,SW,232,8.0,14.0,76,0.00,,,0.23,VWS V14.01,2013-07-23 14:45:00,
2013-07-23 10:46:00,82.2,73.9,29.61,West,281,5.0,14.0,76,0.00,,,0.23,VWS V14.01,2013-07-23 14:46:00,
2013-07-23 10:49:00,82.8,74.5,29.61,WNW,299,5.0,14.0,76,0.00,,,0.23,VWS V14.01,2013-07-23 14:49:00,
2013-07-23 10:50:00,82.8,74.1,29.61,West,259,12.0,14.0,75,0.00,,,0.23,VWS V14.01,2013-07-23 14:50:00,
2013-07-23 10:51:00,82.8,74.5,29.61,West,278,7.0,14.0,76,0.00,,,0.23,VWS V14.01,2013-07-23 14:51:00,
2013-07-23 10:54:00,83.0,74.7,29.61,SW,236,5.0,14.0,76,0.00,,,0.23,VWS V14.01,2013-07-23 14:54:00,
2013-07-23 10:55:00,83.2,74.1,29.61,SW,225,6.0,14.0,74,0.00,,,0.23,VWS V14.01,2013-07-23 14:55:00,
2013-07-23 10:56:00,83.4,74.7,29.61,SW,223,12.0,14.0,75,0.00,,,0.23,VWS V14.01,2013-07-23 14:56:00,
2013-07-23 10:58:00,83.8,75.4,29.61,SW,232,10.0,15.0,76,0.00,,,0.23,VWS V14.01,2013-07-23 14:58:00,
2013-07-23 10:59:00,84.0,74.8,29.61,SW,217,6.0,15.0,74,0.00,,,0.23,VWS V14.01,2013-07-23 14:59:00,
2013-07-23 11:02:00,84.3,73.9,29.61,WSW,254,6.0,15.0,71,0.00,,,0.23,VWS V14.01,2013-07-23 15:02:00,
2013-07-23 11:04:00,84.3,74.3,29.61,SW,234,0.0,15.0,72,0.00,,,0.23,VWS V14.01,2013-07-23 15:04:00,
2013-07-23 11:06:00,84.7,74.7,29.61,SW,225,2.0,10.0,72,0.00,,,0.23,VWS V14.01,2013-07-23 15:06:00,
2013-07-23 11:08:00,84.7,73.8,29.61,West,271,6.0,12.0,70,0.00,,,0.23,VWS V14.01,2013-07-23 15:08:00,
2013-07-23 11:10:00,84.5,73.7,29.61,WNW,284,7.0,12.0,70,0.00,,,0.23,VWS V14.01,2013-07-23 15:10:00,
2013-07-23 11:11:00,84.5,74.1,29.61,NW,311,8.0,12.0,71,0.00,,,0.23,VWS V14.01,2013-07-23 15:11:00,
2013-07-23 11:12:00,84.5,74.5,29.61,WSW,250,7.0,13.0,72,0.00,,,0.23,VWS V14.01,2013-07-23 15:12:00,
2013-07-23 11:13:00,84.5,74.1,29.61,SSW,213,6.0,13.0,71,0.00,,,0.23,VWS V14.01,2013-07-23 15:13:00,
2013-07-23 11:17:00,84.9,74.4,29.61,WNW,291,13.0,13.0,71,0.00,,,0.23,VWS V14.01,2013-07-23 15:17:00,
2013-07-23 11:18:00,84.9,73.6,29.61,West,270,9.0,13.0,69,0.00,,,0.23,VWS V14.01,2013-07-23 15:18:00,
2013-07-23 11:19:00,84.7,73.0,29.62,West,279,10.0,13.0,68,0.00,,,0.23,VWS V14.01,2013-07-23 15:19:00,
2013-07-23 11:20:00,84.7,74.7,29.62,West,273,11.0,13.0,72,0.00,,,0.23,VWS V14.01,2013-07-23 15:20:00,
2013-07-23 11:21:00,84.5,73.2,29.62,WNW,298,6.0,13.0,69,0.00,,,0.23,VWS V14.01,2013-07-23 15:21:00,
2013-07-23 11:25:00,84.3,73.5,29.62,West,275,4.0,14.0,70,0.00,,,0.23,VWS V14.01,2013-07-23 15:25:00,
2013-07-23 11:26:00,84.3,73.5,29.62,West,273,11.0,14.0,70,0.00,,,0.23,VWS V14.01,2013-07-23 15:26:00,
2013-07-23 11:27:00,84.3,74.3,29.62,West,279,9.0,14.0,72,0.00,,,0.23,VWS V14.01,2013-07-23 15:27:00,
2013-07-23 11:30:00,84.5,75.3,29.62,WSW,242,12.0,14.0,74,0.00,,,0.23,VWS V14.01,2013-07-23 15:30:00,
2013-07-23 11:31:00,84.5,74.5,29.62,West,277,3.0,14.0,72,0.00,,,0.23,VWS V14.01,2013-07-23 15:31:00,
2013-07-23 11:32:00,84.7,74.7,29.62,West,267,4.0,14.0,72,0.00,,,0.23,VWS V14.01,2013-07-23 15:32:00,
2013-07-23 11:35:00,85.5,75.0,29.61,SSW,206,9.0,12.0,71,0.00,,,0.23,VWS V14.01,2013-07-23 15:35:00,
2013-07-23 11:37:00,85.5,74.2,29.61,SW,215,10.0,15.0,69,0.00,,,0.23,VWS V14.01,2013-07-23 15:37:00,
2013-07-23 11:40:00,85.3,74.0,29.61,WSW,252,6.0,15.0,69,0.00,,,0.23,VWS V14.01,2013-07-23 15:40:00,
2013-07-23 11:41:00,85.3,74.4,29.61,WSW,252,3.0,15.0,70,0.00,,,0.23,VWS V14.01,2013-07-23 15:41:00,
2013-07-23 11:44:00,84.9,74.0,29.61,West,271,5.0,15.0,70,0.00,,,0.23,VWS V14.01,2013-07-23 15:44:00,
2013-07-23 11:46:00,84.7,73.0,29.61,West,265,3.0,15.0,68,0.00,,,0.23,VWS V14.01,2013-07-23 15:46:00,
2013-07-23 11:48:00,84.5,73.2,29.61,WSW,254,6.0,15.0,69,0.00,,,0.23,VWS V14.01,2013-07-23 15:48:00,
2013-07-23 11:49:00,84.5,73.7,29.61,WSW,248,8.0,15.0,70,0.00,,,0.23,VWS V14.01,2013-07-23 15:49:00,
2013-07-23 11:50:00,84.5,73.7,29.60,West,259,5.0,15.0,70,0.00,,,0.23,VWS V14.01,2013-07-23 15:50:00,
2013-07-23 11:53:00,84.3,73.9,29.60,WSW,252,4.0,15.0,71,0.00,,,0.23,VWS V14.01,2013-07-23 15:53:00,
2013-07-23 11:54:00,84.1,73.7,29.60,WSW,254,6.0,15.0,71,0.00,,,0.23,VWS V14.01,2013-07-23 15:54:00,
2013-07-23 11:55:00,84.0,73.2,29.60,WNW,288,6.0,15.0,70,0.00,,,0.23,VWS V14.01,2013-07-23 15:55:00,
2013-07-23 11:56:00,83.8,73.0,29.60,WNW,282,0.0,15.0,70,0.00,,,0.23,VWS V14.01,2013-07-23 15:56:00,
2013-07-23 11:58:00,83.8,73.8,29.60,WSW,251,3.0,15.0,72,0.00,,,0.23,VWS V14.01,2013-07-23 15:58:00,
2013-07-23 11:59:00,83.8,73.8,29.60,SW,229,5.0,15.0,72,0.00,,,0.23,VWS V14.01,2013-07-23 15:59:00,
2013-07-23 12:02:00,83.6,73.2,29.60,West,267,0.0,15.0,71,0.00,,,0.23,VWS V14.01,2013-07-23 16:02:00,
2013-07-23 12:03:00,83.6,73.6,29.60,SW,227,3.0,15.0,72,0.00,,,0.23,VWS V14.01,2013-07-23 16:03:00,
2013-07-23 12:05:00,84.1,74.9,29.60,SSW,207,3.0,15.0,74,0.00,,,0.23,VWS V14.01,2013-07-23 16:05:00,
2013-07-23 12:07:00,84.3,74.3,29.60,SW,216,2.0,6.0,72,0.00,,,0.23,VWS V14.01,2013-07-23 16:07:00,
2013-07-23 12:08:00,84.3,73.9,29.60,WSW,256,9.0,11.0,71,0.00,,,0.23,VWS V14.01,2013-07-23 16:08:00,
2013-07-23 12:10:00,84.5,74.5,29.60,West,265,5.0,11.0,72,0.00,,,0.23,VWS V14.01,2013-07-23 16:10:00,
2013-07-23 12:12:00,84.5,74.1,29.60,SW,223,10.0,11.0,71,0.00,,,0.23,VWS V14.01,2013-07-23 16:12:00,
2013-07-23 12:13:00,84.5,74.1,29.60,SW,225,7.0,12.0,71,0.00,,,0.23,VWS V14.01,2013-07-23 16:13:00,
2013-07-23 12:15:00,84.5,74.1,29.60,WSW,257,9.0,12.0,71,0.00,,,0.23,VWS V14.01,2013-07-23 16:15:00,
2013-07-23 12:20:00,84.7,75.1,29.60,SW,228,2.0,12.0,73,0.00,,,0.23,VWS V14.01,2013-07-23 16:20:00,
2013-07-23 12:22:00,84.9,74.9,29.60,SW,226,0.0,12.0,72,0.00,,,0.23,VWS V14.01,2013-07-23 16:22:00,
2013-07-23 12:23:00,85.1,75.5,29.60,SW,223,9.0,12.0,73,0.00,,,0.23,VWS V14.01,2013-07-23 16:23:00,
2013-07-23 12:26:00,85.1,74.2,29.60,West,270,7.0,12.0,70,0.00,,,0.23,VWS V14.01,2013-07-23 16:26:00,
2013-07-23 12:28:00,85.5,76.3,29.60,SW,225,9.0,12.0,74,0.00,,,0.23,VWS V14.01,2013-07-23 16:28:00,
2013-07-23 12:29:00,85.7,76.1,29.60,SW,224,8.0,12.0,73,0.00,,,0.23,VWS V14.01,2013-07-23 16:29:00,
2013-07-23 12:30:00,85.9,76.7,29.60,SSW,200,4.0,12.0,74,0.00,,,0.23,VWS V14.01,2013-07-23 16:30:00,
2013-07-23 12:33:00,86.7,76.2,29.60,SSW,207,1.0,12.0,71,0.00,,,0.23,VWS V14.01,2013-07-23 16:33:00,
2013-07-23 12:34:00,87.0,76.9,29.60,WSW,238,7.0,12.0,72,0.00,,,0.23,VWS V14.01,2013-07-23 16:34:00,
2013-07-23 12:35:00,87.2,76.2,29.59,SW,232,8.0,12.0,70,0.00,,,0.23,VWS V14.01,2013-07-23 16:35:00,
2013-07-23 12:39:00,86.7,75.8,29.59,SSW,193,11.0,13.0,70,0.00,,,0.23,VWS V14.01,2013-07-23 16:39:00,
2013-07-23 12:40:00,86.7,75.3,29.59,WSW,239,9.0,14.0,69,0.00,,,0.23,VWS V14.01,2013-07-23 16:40:00,
2013-07-23 12:41:00,86.7,75.8,29.59,WSW,250,9.0,14.0,70,0.00,,,0.23,VWS V14.01,2013-07-23 16:41:00,
2013-07-23 12:43:00,86.7,76.2,29.59,SW,218,7.0,14.0,71,0.00,,,0.23,VWS V14.01,2013-07-23 16:43:00,
2013-07-23 12:45:00,86.7,75.8,29.59,SSW,211,5.0,14.0,70,0.00,,,0.23,VWS V14.01,2013-07-23 16:45:00,
2013-07-23 12:46:00,86.3,74.9,29.59,SSW,211,5.0,14.0,69,0.00,,,0.23,VWS V14.01,2013-07-23 16:46:00,
2013-07-23 12:47:00,86.3,75.4,29.59,WSW,248,11.0,14.0,70,0.00,,,0.23,VWS V14.01,2013-07-23 16:47:00,
2013-07-23 12:50:00,85.9,75.4,29.59,SW,222,9.0,14.0,71,0.00,,,0.23,VWS V14.01,2013-07-23 16:50:00,
2013-07-23 12:51:00,86.1,75.6,29.59,WSW,242,9.0,14.0,71,0.00,,,0.23,VWS V14.01,2013-07-23 16:51:00,
2013-07-23 12:52:00,86.3,76.2,29.59,SW,218,5.0,14.0,72,0.00,,,0.23,VWS V14.01,2013-07-23 16:52:00,
2013-07-23 12:53:00,86.1,76.0,29.59,WSW,244,6.0,14.0,72,0.00,,,0.23,VWS V14.01,2013-07-23 16:53:00,
2013-07-23 12:58:00,86.1,74.8,29.59,West,271,10.0,14.0,69,0.00,,,0.23,VWS V14.01,2013-07-23 16:58:00,
2013-07-23 12:59:00,85.9,74.6,29.59,WSW,257,6.0,14.0,69,0.00,,,0.23,VWS V14.01,2013-07-23 16:59:00,
2013-07-23 13:00:00,85.9,74.6,29.59,SW,236,0.0,14.0,69,0.00,,,0.23,VWS V14.01,2013-07-23 17:00:00,
2013-07-23 13:02:00,85.9,74.1,29.59,WSW,257,6.0,14.0,68,0.00,,,0.23,VWS V14.01,2013-07-23 17:02:00,
2013-07-23 13:05:00,85.9,74.1,29.59,West,275,10.0,10.0,68,0.00,,,0.23,VWS V14.01,2013-07-23 17:05:00,
2013-07-23 13:07:00,85.9,75.0,29.59,WSW,240,9.0,11.0,70,0.00,,,0.23,VWS V14.01,2013-07-23 17:07:00,
2013-07-23 13:08:00,86.1,75.6,29.59,SW,234,2.0,11.0,71,0.00,,,0.23,VWS V14.01,2013-07-23 17:08:00,
2013-07-23 13:10:00,85.9,73.7,29.59,WSW,241,10.0,11.0,67,0.00,,,0.23,VWS V14.01,2013-07-23 17:10:00,
2013-07-23 13:12:00,85.7,73.9,29.59,SW,222,8.0,11.0,68,0.00,,,0.23,VWS V14.01,2013-07-23 17:12:00,
2013-07-23 13:13:00,85.7,73.9,29.59,SW,214,7.0,11.0,68,0.00,,,0.23,VWS V14.01,2013-07-23 17:13:00,
2013-07-23 13:15:00,85.7,74.8,29.59,SW,229,8.0,11.0,70,0.00,,,0.23,VWS V14.01,2013-07-23 17:15:00,
2013-07-23 13:18:00,85.9,74.6,29.59,SW,226,5.0,12.0,69,0.00,,,0.23,VWS V14.01,2013-07-23 17:18:00,
2013-07-23 13:19:00,85.9,74.6,29.58,WSW,254,2.0,12.0,69,0.00,,,0.23,VWS V14.01,2013-07-23 17:19:00,
2013-07-23 13:20:00,85.9,74.6,29.58,West,266,3.0,12.0,69,0.00,,,0.23,VWS V14.01,2013-07-23 17:20:00,
2013-07-23 13:21:00,85.9,74.6,29.58,West,265,5.0,12.0,69,0.00,,,0.23,VWS V14.01,2013-07-23 17:21:00,
2013-07-23 13:24:00,85.7,74.4,29.58,SW,228,0.0,12.0,69,0.00,,,0.23,VWS V14.01,2013-07-23 17:24:00,
2013-07-23 13:26:00,85.5,73.7,29.58,SW,229,5.0,12.0,68,0.00,,,0.23,VWS V14.01,2013-07-23 17:26:00,
2013-07-23 13:28:00,85.3,74.0,29.58,WSW,248,5.0,12.0,69,0.00,,,0.23,VWS V14.01,2013-07-23 17:28:00,
2013-07-23 13:29:00,85.3,74.0,29.58,SW,227,5.0,12.0,69,0.00,,,0.23,VWS V14.01,2013-07-23 17:29:00,
2013-07-23 13:33:00,85.3,74.4,29.58,SW,232,3.0,12.0,70,0.00,,,0.23,VWS V14.01,2013-07-23 17:33:00,
2013-07-23 13:34:00,85.3,74.8,29.57,SW,233,0.0,12.0,71,0.00,,,0.23,VWS V14.01,2013-07-23 17:34:00,
2013-07-23 13:35:00,85.3,74.8,29.57,WSW,238,2.0,12.0,71,0.00,,,0.23,VWS V14.01,2013-07-23 17:35:00,
2013-07-23 13:37:00,85.3,74.4,29.57,SW,235,5.0,8.0,70,0.00,,,0.23,VWS V14.01,2013-07-23 17:37:00,
2013-07-23 13:39:00,85.3,74.0,29.57,SW,229,6.0,8.0,69,0.00,,,0.23,VWS V14.01,2013-07-23 17:39:00,
2013-07-23 13:40:00,85.3,74.4,29.57,SW,232,8.0,9.0,70,0.00,,,0.23,VWS V14.01,2013-07-23 17:40:00,
2013-07-23 13:41:00,85.5,74.6,29.57,SW,222,9.0,9.0,70,0.00,,,0.23,VWS V14.01,2013-07-23 17:41:00,
2013-07-23 13:44:00,85.3,74.4,29.57,SW,225,6.0,9.0,70,0.00,,,0.23,VWS V14.01,2013-07-23 17:44:00,
2013-07-23 13:46:00,85.5,74.6,29.57,SW,225,3.0,9.0,70,0.00,,,0.23,VWS V14.01,2013-07-23 17:46:00,
2013-07-23 13:49:00,85.5,75.0,29.57,SSW,209,7.0,9.0,71,0.00,,,0.23,VWS V14.01,2013-07-23 17:49:00,
2013-07-23 13:51:00,85.9,75.8,29.57,SW,215,7.0,9.0,72,0.00,,,0.23,VWS V14.01,2013-07-23 17:51:00,
2013-07-23 13:52:00,86.3,76.2,29.57,SW,216,5.0,9.0,72,0.00,,,0.23,VWS V14.01,2013-07-23 17:52:00,
2013-07-23 13:55:00,87.0,76.0,29.57,SW,234,9.0,11.0,70,0.00,,,0.23,VWS V14.01,2013-07-23 17:55:00,
2013-07-23 13:56:00,87.2,75.4,29.57,SSW,212,6.0,11.0,68,0.00,,,0.23,VWS V14.01,2013-07-23 17:56:00,
2013-07-23 13:58:00,87.6,75.3,29.57,SSW,205,2.0,11.0,67,0.00,,,0.23,VWS V14.01,2013-07-23 17:58:00,
2013-07-23 14:03:00,88.6,75.3,29.57,SW,234,4.0,12.0,65,0.00,,,0.23,VWS V14.01,2013-07-23 18:03:00,
2013-07-23 14:05:00,88.8,75.1,29.56,SW,228,2.0,12.0,64,0.00,,,0.23,VWS V14.01,2013-07-23 18:05:00,
2013-07-23 14:06:00,89.0,75.2,29.56,SW,226,8.0,9.0,64,0.00,,,0.23,VWS V14.01,2013-07-23 18:06:00,
2013-07-23 14:09:00,89.5,76.7,29.56,SSW,204,7.0,9.0,66,0.00,,,0.23,VWS V14.01,2013-07-23 18:09:00,
2013-07-23 14:11:00,89.5,75.7,29.56,SSW,210,6.0,10.0,64,0.00,,,0.23,VWS V14.01,2013-07-23 18:11:00,
2013-07-23 14:12:00,89.5,75.2,29.56,SSW,210,4.0,10.0,63,0.00,,,0.23,VWS V14.01,2013-07-23 18:12:00,
2013-07-23 14:15:00,89.5,75.7,29.56,SW,229,6.0,10.0,64,0.00,,,0.23,VWS V14.01,2013-07-23 18:15:00,
2013-07-23 14:17:00,89.5,75.2,29.56,West,276,0.0,10.0,63,0.00,,,0.23,VWS V14.01,2013-07-23 18:17:00,
2013-07-23 14:19:00,89.5,75.7,29.57,WSW,244,0.0,10.0,64,0.00,,,0.23,VWS V14.01,2013-07-23 18:19:00,
2013-07-23 14:22:00,89.3,75.5,29.57,WSW,252,5.0,10.0,64,0.00,,,0.23,VWS V14.01,2013-07-23 18:22:00,
2013-07-23 14:24:00,89.0,75.2,29.57,SW,229,8.0,10.0,64,0.00,,,0.23,VWS V14.01,2013-07-23 18:24:00,
2013-07-23 14:27:00,88.8,74.1,29.57,West,267,10.0,11.0,62,0.00,,,0.23,VWS V14.01,2013-07-23 18:27:00,
2013-07-23 14:28:00,88.8,73.6,29.57,WSW,245,9.0,11.0,61,0.00,,,0.23,VWS V14.01,2013-07-23 18:28:00,
2013-07-23 14:29:00,88.8,74.1,29.57,SW,224,7.0,11.0,62,0.00,,,0.23,VWS V14.01,2013-07-23 18:29:00,
2013-07-23 14:34:00,88.4,72.3,29.56,SW,231,7.0,12.0,59,0.00,,,0.23,VWS V14.01,2013-07-23 18:34:00,
2013-07-23 14:36:00,88.0,71.9,29.56,West,272,4.0,10.0,59,0.00,,,0.23,VWS V14.01,2013-07-23 18:36:00,
2013-07-23 14:41:00,87.6,72.5,29.56,WSW,242,6.0,10.0,61,0.00,,,0.23,VWS V14.01,2013-07-23 18:41:00,
2013-07-23 14:45:00,87.8,73.2,29.56,WNW,288,7.0,11.0,62,0.00,,,0.23,VWS V14.01,2013-07-23 18:45:00,
2013-07-23 14:46:00,88.0,73.4,29.56,West,275,3.0,11.0,62,0.00,,,0.23,VWS V14.01,2013-07-23 18:46:00,
2013-07-23 14:47:00,88.2,72.6,29.56,WNW,283,3.0,11.0,60,0.00,,,0.23,VWS V14.01,2013-07-23 18:47:00,
2013-07-23 14:51:00,88.6,73.4,29.57,West,267,10.0,11.0,61,0.00,,,0.23,VWS V14.01,2013-07-23 18:51:00,
2013-07-23 14:55:00,88.6,71.4,29.57,WNW,282,5.0,11.0,57,0.00,,,0.23,VWS V14.01,2013-07-23 18:55:00,
2013-07-23 14:56:00,88.6,73.4,29.57,West,267,0.0,11.0,61,0.00,,,0.23,VWS V14.01,2013-07-23 18:56:00,
2013-07-23 14:57:00,88.8,73.1,29.57,West,274,0.0,11.0,60,0.00,,,0.23,VWS V14.01,2013-07-23 18:57:00,
2013-07-23 15:02:00,89.3,72.1,29.57,West,269,2.0,11.0,57,0.00,,,0.23,VWS V14.01,2013-07-23 19:02:00,
2013-07-23 15:03:00,89.5,72.3,29.57,WSW,241,7.0,11.0,57,0.00,,,0.23,VWS V14.01,2013-07-23 19:03:00,
2013-07-23 15:06:00,89.9,73.2,29.56,WSW,240,5.0,8.0,58,0.00,,,0.23,VWS V14.01,2013-07-23 19:06:00,
2013-07-23 15:08:00,90.3,73.0,29.56,SW,216,0.0,8.0,57,0.00,,,0.23,VWS V14.01,2013-07-23 19:08:00,
2013-07-23 15:10:00,90.7,72.9,29.56,West,259,5.0,13.0,56,0.00,,,0.23,VWS V14.01,2013-07-23 19:10:00,
2013-07-23 15:11:00,91.0,72.6,29.56,SW,227,7.0,13.0,55,0.00,,,0.23,VWS V14.01,2013-07-23 19:11:00,
2013-07-23 15:12:00,91.0,72.6,29.56,SW,230,13.0,13.0,55,0.00,,,0.23,VWS V14.01,2013-07-23 19:12:00,
2013-07-23 15:13:00,91.2,72.8,29.56,SSW,192,2.0,13.0,55,0.00,,,0.23,VWS V14.01,2013-07-23 19:13:00,
2013-07-23 15:17:00,91.4,75.1,29.56,SSE,156,5.0,13.0,59,0.00,,,0.23,VWS V14.01,2013-07-23 19:17:00,
2013-07-23 15:20:00,91.0,75.7,29.56,South,178,5.0,13.0,61,0.00,,,0.23,VWS V14.01,2013-07-23 19:20:00,
2013-07-23 15:22:00,90.3,75.5,29.56,SSW,194,7.0,13.0,62,0.00,,,0.23,VWS V14.01,2013-07-23 19:22:00,
2013-07-23 15:28:00,88.6,74.9,29.56,South,186,4.0,13.0,64,0.00,,,0.23,VWS V14.01,2013-07-23 19:28:00,
2013-07-23 15:29:00,88.2,74.5,29.56,SSE,161,6.0,13.0,64,0.00,,,0.23,VWS V14.01,2013-07-23 19:29:00,
2013-07-23 15:33:00,87.2,74.5,29.56,South,175,8.0,13.0,66,0.00,,,0.23,VWS V14.01,2013-07-23 19:33:00,
2013-07-23 15:34:00,86.7,74.0,29.56,SSE,159,7.0,13.0,66,0.00,,,0.23,VWS V14.01,2013-07-23 19:34:00,
2013-07-23 15:35:00,86.5,73.8,29.56,SSW,197,11.0,11.0,66,0.00,,,0.23,VWS V14.01,2013-07-23 19:35:00,
2013-07-23 15:39:00,85.7,74.4,29.56,South,182,7.0,12.0,69,0.00,,,0.23,VWS V14.01,2013-07-23 19:39:00,
2013-07-23 15:42:00,85.3,74.8,29.56,SE,143,5.0,12.0,71,0.00,,,0.23,VWS V14.01,2013-07-23 19:42:00,
2013-07-23 15:49:00,85.1,75.1,29.56,SSE,167,6.0,12.0,72,0.00,,,0.23,VWS V14.01,2013-07-23 19:49:00,
2013-07-23 15:50:00,85.3,75.2,29.56,South,171,5.0,12.0,72,0.00,,,0.23,VWS V14.01,2013-07-23 19:50:00,
2013-07-23 15:51:00,85.3,75.7,29.56,SSE,148,4.0,12.0,73,0.00,,,0.23,VWS V14.01,2013-07-23 19:51:00,
2013-07-23 15:53:00,85.3,75.2,29.56,SE,132,6.0,12.0,72,0.00,,,0.23,VWS V14.01,2013-07-23 19:53:00,
2013-07-23 15:58:00,84.9,74.4,29.56,SE,146,2.0,12.0,71,0.00,,,0.23,VWS V14.01,2013-07-23 19:58:00,
2013-07-23 15:59:00,84.9,74.4,29.56,SSE,164,5.0,12.0,71,0.00,,,0.23,VWS V14.01,2013-07-23 19:59:00,
2013-07-23 16:00:00,84.7,74.3,29.56,SSE,153,0.0,12.0,71,0.00,,,0.23,VWS V14.01,2013-07-23 20:00:00,
2013-07-23 16:05:00,85.1,75.1,29.54,SSE,149,7.0,12.0,72,0.00,,,0.23,VWS V14.01,2013-07-23 20:05:00,
2013-07-23 16:07:00,85.3,75.2,29.54,South,188,7.0,11.0,72,0.00,,,0.23,VWS V14.01,2013-07-23 20:07:00,
2013-07-23 16:08:00,85.3,74.8,29.54,South,191,9.0,11.0,71,0.00,,,0.23,VWS V14.01,2013-07-23 20:08:00,
2013-07-23 16:12:00,85.7,74.4,29.54,SSE,162,6.0,14.0,69,0.00,,,0.23,VWS V14.01,2013-07-23 20:12:00,
2013-07-23 16:13:00,85.7,74.4,29.54,SSE,168,6.0,14.0,69,0.00,,,0.23,VWS V14.01,2013-07-23 20:13:00,
2013-07-23 16:14:00,85.7,73.9,29.54,South,175,8.0,14.0,68,0.00,,,0.23,VWS V14.01,2013-07-23 20:14:00,
2013-07-23 16:17:00,85.5,74.2,29.54,SSE,165,5.0,14.0,69,0.00,,,0.23,VWS V14.01,2013-07-23 20:17:00,
2013-07-23 16:18:00,85.5,74.2,29.54,SSW,207,0.0,14.0,69,0.00,,,0.23,VWS V14.01,2013-07-23 20:18:00,
2013-07-23 16:22:00,84.9,73.6,29.54,SE,139,7.0,14.0,69,0.00,,,0.23,VWS V14.01,2013-07-23 20:22:00,
2013-07-23 16:24:00,84.5,74.1,29.54,SSE,166,4.0,14.0,71,0.00,,,0.23,VWS V14.01,2013-07-23 20:24:00,
2013-07-23 16:27:00,84.1,74.1,29.54,South,189,3.0,14.0,72,0.00,,,0.23,VWS V14.01,2013-07-23 20:27:00,
2013-07-23 16:29:00,84.0,74.0,29.54,SSW,196,7.0,14.0,72,0.00,,,0.23,VWS V14.01,2013-07-23 20:29:00,
2013-07-23 16:33:00,83.8,74.6,29.54,SSE,162,5.0,14.0,74,0.00,,,0.23,VWS V14.01,2013-07-23 20:33:00,
2013-07-23 16:35:00,84.0,75.2,29.54,South,182,2.0,14.0,75,0.00,,,0.23,VWS V14.01,2013-07-23 20:35:00,
2013-07-23 16:37:00,84.0,75.6,29.54,South,182,2.0,8.0,76,0.00,,,0.23,VWS V14.01,2013-07-23 20:37:00,
2013-07-23 16:40:00,84.3,75.5,29.54,South,182,5.0,9.0,75,0.00,,,0.23,VWS V14.01,2013-07-23 20:40:00,
2013-07-23 16:42:00,84.7,75.9,29.54,South,188,2.0,9.0,75,0.00,,,0.23,VWS V14.01,2013-07-23 20:42:00,
2013-07-23 16:44:00,84.9,75.7,29.54,South,180,4.0,9.0,74,0.00,,,0.23,VWS V14.01,2013-07-23 20:44:00,
2013-07-23 16:47:00,85.3,75.7,29.54,SSE,164,4.0,10.0,73,0.00,,,0.23,VWS V14.01,2013-07-23 20:47:00,
2013-07-23 16:48:00,85.3,75.7,29.54,South,169,2.0,10.0,73,0.00,,,0.23,VWS V14.01,2013-07-23 20:48:00,
2013-07-23 16:51:00,85.7,76.1,29.53,South,190,4.0,10.0,73,0.00,,,0.23,VWS V14.01,2013-07-23 20:51:00,
2013-07-23 16:54:00,85.9,75.4,29.53,South,183,9.0,13.0,71,0.00,,,0.23,VWS V14.01,2013-07-23 20:54:00,
2013-07-23 16:57:00,85.9,75.8,29.53,South,184,5.0,14.0,72,0.00,,,0.23,VWS V14.01,2013-07-23 20:57:00,
2013-07-23 16:58:00,85.9,75.8,29.53,South,183,4.0,14.0,72,0.00,,,0.23,VWS V14.01,2013-07-23 20:58:00,
2013-07-23 16:59:00,85.9,76.2,29.53,South,178,7.0,14.0,73,0.00,,,0.23,VWS V14.01,2013-07-23 20:59:00,
2013-07-23 17:05:00,85.9,76.2,29.54,South,169,2.0,14.0,73,0.00,,,0.23,VWS V14.01,2013-07-23 21:05:00,
2013-07-23 17:07:00,85.7,76.1,29.54,SSW,192,5.0,8.0,73,0.00,,,0.23,VWS V14.01,2013-07-23 21:07:00,
2013-07-23 17:08:00,85.7,76.1,29.54,SSW,192,4.0,8.0,73,0.00,,,0.23,VWS V14.01,2013-07-23 21:08:00,
2013-07-23 17:12:00,85.3,73.6,29.54,WSW,240,10.0,16.0,68,0.00,,,0.23,VWS V14.01,2013-07-23 21:12:00,
2013-07-23 17:13:00,85.5,72.4,29.54,West,281,3.0,16.0,65,0.00,,,0.23,VWS V14.01,2013-07-23 21:13:00,
2013-07-23 17:14:00,85.7,72.1,29.54,WSW,253,8.0,16.0,64,0.00,,,0.23,VWS V14.01,2013-07-23 21:14:00,
2013-07-23 17:18:00,86.5,71.9,29.54,West,271,9.0,16.0,62,0.00,,,0.23,VWS V14.01,2013-07-23 21:18:00,
2013-07-23 17:19:00,87.0,71.9,29.54,West,271,1.0,16.0,61,0.00,,,0.23,VWS V14.01,2013-07-23 21:19:00,
2013-07-23 17:20:00,87.2,71.6,29.53,West,271,4.0,16.0,60,0.00,,,0.23,VWS V14.01,2013-07-23 21:20:00,
2013-07-23 17:25:00,88.2,71.6,29.53,West,262,7.0,16.0,58,0.00,,,0.23,VWS V14.01,2013-07-23 21:25:00,
2013-07-23 17:26:00,88.2,71.1,29.53,West,269,4.0,16.0,57,0.00,,,0.23,VWS V14.01,2013-07-23 21:26:00,
2013-07-23 17:28:00,88.4,70.2,29.53,WNW,288,12.0,17.0,55,0.00,,,0.23,VWS V14.01,2013-07-23 21:28:00,
2013-07-23 17:29:00,88.4,70.7,29.53,WNW,293,10.0,17.0,56,0.00,,,0.23,VWS V14.01,2013-07-23 21:29:00,
2013-07-23 17:30:00,88.4,70.2,29.53,West,273,11.0,17.0,55,0.00,,,0.23,VWS V14.01,2013-07-23 21:30:00,
2013-07-23 17:34:00,88.6,70.4,29.53,WNW,297,10.0,17.0,55,0.00,,,0.23,VWS V14.01,2013-07-23 21:34:00,
2013-07-23 17:35:00,88.6,70.4,29.53,WNW,285,3.0,17.0,55,0.00,,,0.23,VWS V14.01,2013-07-23 21:35:00,
2013-07-23 17:36:00,88.6,70.4,29.53,WSW,240,8.0,12.0,55,0.00,,,0.23,VWS V14.01,2013-07-23 21:36:00,
2013-07-23 17:38:00,88.6,70.9,29.53,WSW,247,10.0,17.0,56,0.00,,,0.23,VWS V14.01,2013-07-23 21:38:00,
2013-07-23 17:40:00,88.6,70.9,29.53,SW,229,5.0,17.0,56,0.00,,,0.23,VWS V14.01,2013-07-23 21:40:00,
2013-07-23 17:44:00,88.2,71.1,29.53,SW,234,5.0,17.0,57,0.00,,,0.23,VWS V14.01,2013-07-23 21:44:00,
2013-07-23 17:45:00,88.0,70.3,29.53,WSW,248,11.0,17.0,56,0.00,,,0.23,VWS V14.01,2013-07-23 21:45:00,
2013-07-23 17:49:00,87.4,70.8,29.53,West,268,6.0,17.0,58,0.00,,,0.23,VWS V14.01,2013-07-23 21:49:00,
2013-07-23 17:50:00,87.4,70.8,29.53,West,261,8.0,17.0,58,0.00,,,0.23,VWS V14.01,2013-07-23 21:50:00,
2013-07-23 17:52:00,87.0,70.9,29.53,NW,311,0.0,17.0,59,0.00,,,0.23,VWS V14.01,2013-07-23 21:52:00,
2013-07-23 17:55:00,86.5,71.0,29.53,West,267,4.0,17.0,60,0.00,,,0.23,VWS V14.01,2013-07-23 21:55:00,
2013-07-23 17:58:00,86.3,71.8,29.53,WNW,295,0.0,17.0,62,0.00,,,0.23,VWS V14.01,2013-07-23 21:58:00,
2013-07-23 18:00:00,86.1,71.6,29.53,WNW,290,2.0,17.0,62,0.00,,,0.23,VWS V14.01,2013-07-23 22:00:00,
2013-07-23 18:01:00,85.9,71.8,29.53,NW,306,7.0,17.0,63,0.00,,,0.23,VWS V14.01,2013-07-23 22:01:00,
2013-07-23 18:02:00,85.7,71.2,29.53,WNW,294,4.0,17.0,62,0.00,,,0.23,VWS V14.01,2013-07-23 22:02:00,
2013-07-23 18:07:00,85.3,71.8,29.54,West,265,3.0,9.0,64,0.00,,,0.23,VWS V14.01,2013-07-23 22:07:00,
2013-07-23 18:09:00,85.3,71.3,29.54,NW,315,2.0,9.0,63,0.00,,,0.23,VWS V14.01,2013-07-23 22:09:00,
2013-07-23 18:10:00,85.3,71.3,29.54,NW,313,5.0,9.0,63,0.00,,,0.23,VWS V14.01,2013-07-23 22:10:00,
2013-07-23 18:13:00,85.5,71.0,29.54,NW,305,8.0,9.0,62,0.00,,,0.23,VWS V14.01,2013-07-23 22:13:00,
2013-07-23 18:16:00,85.7,71.2,29.54,WNW,283,7.0,9.0,62,0.00,,,0.23,VWS V14.01,2013-07-23 22:16:00,
2013-07-23 18:18:00,85.5,70.5,29.54,WNW,302,5.0,10.0,61,0.00,,,0.23,VWS V14.01,2013-07-23 22:18:00,
2013-07-23 18:21:00,85.5,71.0,29.53,West,281,0.0,10.0,62,0.00,,,0.23,VWS V14.01,2013-07-23 22:21:00,
2013-07-23 18:25:00,85.7,71.2,29.53,WNW,292,4.0,10.0,62,0.00,,,0.23,VWS V14.01,2013-07-23 22:25:00,
2013-07-23 18:26:00,85.9,71.4,29.53,West,274,9.0,10.0,62,0.00,,,0.23,VWS V14.01,2013-07-23 22:26:00,
2013-07-23 18:27:00,85.9,71.8,29.53,WNW,294,10.0,10.0,63,0.00,,,0.23,VWS V14.01,2013-07-23 22:27:00,
2013-07-23 18:30:00,86.1,71.6,29.53,NW,305,4.0,12.0,62,0.00,,,0.23,VWS V14.01,2013-07-23 22:30:00,
2013-07-23 18:31:00,86.1,71.6,29.53,West,279,4.0,12.0,62,0.00,,,0.23,VWS V14.01,2013-07-23 22:31:00,
2013-07-23 18:33:00,86.1,72.0,29.53,WSW,257,1.0,12.0,63,0.00,,,0.23,VWS V14.01,2013-07-23 22:33:00,
2013-07-23 18:35:00,86.1,71.6,29.53,West,276,6.0,12.0,62,0.00,,,0.23,VWS V14.01,2013-07-23 22:35:00,
2013-07-23 18:38:00,85.9,71.4,29.53,WSW,252,13.0,13.0,62,0.00,,,0.23,VWS V14.01,2013-07-23 22:38:00,
2013-07-23 18:41:00,85.3,71.3,29.53,West,261,14.0,19.0,63,0.00,,,0.23,VWS V14.01,2013-07-23 22:41:00,
2013-07-23 18:44:00,84.7,71.2,29.53,West,273,11.0,19.0,64,0.00,,,0.23,VWS V14.01,2013-07-23 22:44:00,
2013-07-23 18:45:00,84.7,71.6,29.53,WNW,296,8.0,19.0,65,0.00,,,0.23,VWS V14.01,2013-07-23 22:45:00,
2013-07-23 18:46:00,84.5,71.4,29.53,West,271,9.0,19.0,65,0.00,,,0.23,VWS V14.01,2013-07-23 22:46:00,
2013-07-23 18:51:00,84.1,72.4,29.53,West,267,8.0,19.0,68,0.00,,,0.23,VWS V14.01,2013-07-23 22:51:00,
2013-07-23 18:53:00,84.1,72.0,29.53,West,269,7.0,19.0,67,0.00,,,0.23,VWS V14.01,2013-07-23 22:53:00,
2013-07-23 18:56:00,84.1,72.4,29.53,West,262,8.0,19.0,68,0.00,,,0.23,VWS V14.01,2013-07-23 22:56:00,
2013-07-23 18:57:00,84.0,72.3,29.53,West,265,6.0,19.0,68,0.00,,,0.23,VWS V14.01,2013-07-23 22:57:00,
2013-07-23 18:58:00,84.0,72.3,29.53,West,261,7.0,19.0,68,0.00,,,0.23,VWS V14.01,2013-07-23 22:58:00,
2013-07-23 19:01:00,83.8,72.1,29.53,West,272,6.0,19.0,68,0.00,,,0.23,VWS V14.01,2013-07-23 23:01:00,
2013-07-23 19:02:00,83.8,72.1,29.53,WSW,256,0.0,19.0,68,0.00,,,0.23,VWS V14.01,2013-07-23 23:02:00,
2013-07-23 19:05:00,83.6,71.9,29.53,WSW,254,5.0,19.0,68,0.00,,,0.23,VWS V14.01,2013-07-23 23:05:00,
2013-07-23 19:06:00,83.6,71.9,29.53,WSW,254,9.0,10.0,68,0.00,,,0.23,VWS V14.01,2013-07-23 23:06:00,
2013-07-23 19:08:00,83.6,71.9,29.53,WNW,288,5.0,10.0,68,0.00,,,0.23,VWS V14.01,2013-07-23 23:08:00,
2013-07-23 19:09:00,83.4,71.7,29.53,WNW,284,2.0,10.0,68,0.00,,,0.23,VWS V14.01,2013-07-23 23:09:00,
2013-07-23 19:14:00,83.2,71.6,29.53,West,263,7.0,10.0,68,0.00,,,0.23,VWS V14.01,2013-07-23 23:14:00,
2013-07-23 19:16:00,83.2,71.6,29.53,WSW,254,0.0,10.0,68,0.00,,,0.23,VWS V14.01,2013-07-23 23:16:00,
2013-07-23 19:18:00,83.0,71.4,29.53,WSW,254,1.0,10.0,68,0.00,,,0.23,VWS V14.01,2013-07-23 23:18:00,
2013-07-23 19:19:00,83.0,71.4,29.54,West,259,0.0,10.0,68,0.00,,,0.23,VWS V14.01,2013-07-23 23:19:00,
2013-07-23 19:23:00,82.8,71.2,29.54,West,272,6.0,10.0,68,0.00,,,0.23,VWS V14.01,2013-07-23 23:23:00,
2013-07-23 19:26:00,82.8,71.2,29.54,West,269,2.0,10.0,68,0.00,,,0.23,VWS V14.01,2013-07-23 23:26:00,
2013-07-23 19:32:00,82.4,70.8,29.54,WNW,298,6.0,12.0,68,0.00,,,0.23,VWS V14.01,2013-07-23 23:32:00,
2013-07-23 19:35:00,82.2,70.6,29.54,West,268,2.0,12.0,68,0.00,,,0.23,VWS V14.01,2013-07-23 23:35:00,
2013-07-23 19:36:00,82.0,70.8,29.54,West,270,2.0,7.0,69,0.00,,,0.23,VWS V14.01,2013-07-23 23:36:00,
2013-07-23 19:41:00,81.8,70.6,29.54,West,269,2.0,7.0,69,0.00,,,0.23,VWS V14.01,2013-07-23 23:41:00,
2013-07-23 19:42:00,81.8,71.1,29.54,West,259,3.0,7.0,70,0.00,,,0.23,VWS V14.01,2013-07-23 23:42:00,
2013-07-23 19:44:00,81.8,71.1,29.54,West,259,3.0,8.0,70,0.00,,,0.23,VWS V14.01,2013-07-23 23:44:00,
2013-07-23 19:45:00,81.8,71.1,29.54,West,267,5.0,8.0,70,0.00,,,0.23,VWS V14.01,2013-07-23 23:45:00,
2013-07-23 19:47:00,81.6,70.9,29.54,West,273,9.0,9.0,70,0.00,,,0.23,VWS V14.01,2013-07-23 23:47:00,
2013-07-23 19:52:00,81.4,70.7,29.54,West,277,5.0,10.0,70,0.00,,,0.23,VWS V14.01,2013-07-23 23:52:00,
2013-07-23 19:53:00,81.4,70.7,29.54,WSW,254,5.0,10.0,70,0.00,,,0.23,VWS V14.01,2013-07-23 23:53:00,
2013-07-23 19:55:00,81.2,70.9,29.54,West,263,2.0,10.0,71,0.00,,,0.23,VWS V14.01,2013-07-23 23:55:00,
2013-07-23 19:59:00,81.2,70.9,29.54,West,263,0.0,10.0,71,0.00,,,0.23,VWS V14.01,2013-07-23 23:59:00,
2013-07-23 20:03:00,81.1,70.8,29.54,West,272,0.0,10.0,71,0.00,,,0.23,VWS V14.01,2013-07-24 00:03:00,
2013-07-23 20:04:00,81.1,70.8,29.55,West,267,5.0,10.0,71,0.00,,,0.23,VWS V14.01,2013-07-24 00:04:00,
2013-07-23 20:08:00,80.9,71.0,29.55,WSW,257,4.0,8.0,72,0.00,,,0.23,VWS V14.01,2013-07-24 00:08:00,
2013-07-23 20:09:00,80.9,71.0,29.55,West,261,3.0,8.0,72,0.00,,,0.23,VWS V14.01,2013-07-24 00:09:00,
2013-07-23 20:14:00,80.9,71.0,29.55,WSW,252,3.0,10.0,72,0.00,,,0.23,VWS V14.01,2013-07-24 00:14:00,
2013-07-23 20:15:00,80.7,70.8,29.55,WSW,252,3.0,10.0,72,0.00,,,0.23,VWS V14.01,2013-07-24 00:15:00,
2013-07-23 20:16:00,80.7,70.8,29.55,WSW,248,5.0,10.0,72,0.00,,,0.23,VWS V14.01,2013-07-24 00:16:00,
2013-07-23 20:19:00,80.7,70.8,29.55,WSW,246,0.0,10.0,72,0.00,,,0.23,VWS V14.01,2013-07-24 00:19:00,
2013-07-23 20:21:00,80.7,70.8,29.56,WSW,240,1.0,10.0,72,0.00,,,0.23,VWS V14.01,2013-07-24 00:21:00,
2013-07-23 20:22:00,80.7,70.8,29.56,WSW,240,0.0,10.0,72,0.00,,,0.23,VWS V14.01,2013-07-24 00:22:00,
2013-07-23 20:24:00,80.7,70.8,29.56,WSW,240,1.0,10.0,72,0.00,,,0.23,VWS V14.01,2013-07-24 00:24:00,
2013-07-23 20:26:00,80.7,71.2,29.56,WSW,238,4.0,10.0,73,0.00,,,0.23,VWS V14.01,2013-07-24 00:26:00,
2013-07-23 20:29:00,80.7,71.2,29.56,SW,235,7.0,10.0,73,0.00,,,0.23,VWS V14.01,2013-07-24 00:29:00,
2013-07-23 20:32:00,80.7,71.2,29.56,SW,225,5.0,10.0,73,0.00,,,0.23,VWS V14.01,2013-07-24 00:32:00,
2013-07-23 20:35:00,80.5,71.5,29.56,SW,229,0.0,10.0,74,0.00,,,0.23,VWS V14.01,2013-07-24 00:35:00,
2013-07-23 20:36:00,80.5,71.5,29.56,SW,229,6.0,7.0,74,0.00,,,0.23,VWS V14.01,2013-07-24 00:36:00,
2013-07-23 20:38:00,80.5,71.8,29.56,SW,229,6.0,7.0,75,0.00,,,0.23,VWS V14.01,2013-07-24 00:38:00,
2013-07-23 20:42:00,80.3,71.7,29.56,SW,215,7.0,9.0,75,0.00,,,0.23,VWS V14.01,2013-07-24 00:42:00,
2013-07-23 20:44:00,80.3,72.1,29.56,SW,229,1.0,9.0,76,0.00,,,0.23,VWS V14.01,2013-07-24 00:44:00,
2013-07-23 20:47:00,80.3,72.1,29.56,SW,223,5.0,9.0,76,0.00,,,0.23,VWS V14.01,2013-07-24 00:47:00,
2013-07-23 20:48:00,80.3,72.1,29.56,SW,223,5.0,9.0,76,0.00,,,0.23,VWS V14.01,2013-07-24 00:48:00,
2013-07-23 20:50:00,80.1,71.9,29.56,SW,232,2.0,10.0,76,0.00,,,0.23,VWS V14.01,2013-07-24 00:50:00,
2013-07-23 20:51:00,80.1,71.9,29.56,WSW,237,4.0,10.0,76,0.00,,,0.23,VWS V14.01,2013-07-24 00:51:00,
2013-07-23 20:56:00,80.1,71.9,29.56,SW,236,9.0,10.0,76,0.00,,,0.23,VWS V14.01,2013-07-24 00:56:00,
2013-07-23 20:57:00,79.9,72.1,29.56,SW,233,0.0,10.0,77,0.00,,,0.23,VWS V14.01,2013-07-24 00:57:00,
2013-07-23 21:00:00,79.9,72.1,29.56,WSW,237,8.0,10.0,77,0.00,,,0.23,VWS V14.01,2013-07-24 01:00:00,
2013-07-23 21:01:00,79.9,72.1,29.56,WSW,237,6.0,10.0,77,0.00,,,0.23,VWS V14.01,2013-07-24 01:01:00,
2013-07-23 21:03:00,79.9,72.1,29.56,SW,230,8.0,10.0,77,0.00,,,0.23,VWS V14.01,2013-07-24 01:03:00,
2013-07-23 21:05:00,79.8,72.3,29.57,SW,231,0.0,10.0,78,0.00,,,0.23,VWS V14.01,2013-07-24 01:05:00,
2013-07-23 21:06:00,79.8,72.3,29.57,SW,225,4.0,6.0,78,0.00,,,0.23,VWS V14.01,2013-07-24 01:06:00,
2013-07-23 21:08:00,79.8,72.3,29.57,SW,231,7.0,10.0,78,0.00,,,0.23,VWS V14.01,2013-07-24 01:08:00,
2013-07-23 21:12:00,79.8,72.3,29.57,WSW,247,1.0,10.0,78,0.00,,,0.23,VWS V14.01,2013-07-24 01:12:00,
2013-07-23 21:13:00,79.8,72.3,29.57,SW,232,1.0,10.0,78,0.00,,,0.23,VWS V14.01,2013-07-24 01:13:00,
2013-07-23 21:17:00,79.6,72.5,29.57,WSW,251,6.0,10.0,79,0.00,,,0.23,VWS V14.01,2013-07-24 01:17:00,
2013-07-23 21:19:00,79.6,72.5,29.57,WSW,253,0.0,10.0,79,0.00,,,0.23,VWS V14.01,2013-07-24 01:19:00,
2013-07-23 21:20:00,79.6,72.5,29.57,WSW,254,4.0,10.0,79,0.00,,,0.23,VWS V14.01,2013-07-24 01:20:00,
2013-07-23 21:25:00,79.4,72.7,29.57,WSW,246,0.0,10.0,80,0.00,,,0.23,VWS V14.01,2013-07-24 01:25:00,
2013-07-23 21:26:00,79.4,72.7,29.57,WSW,246,3.0,10.0,80,0.00,,,0.23,VWS V14.01,2013-07-24 01:26:00,
2013-07-23 21:31:00,79.4,72.7,29.57,West,267,8.0,10.0,80,0.00,,,0.23,VWS V14.01,2013-07-24 01:31:00,
2013-07-23 21:32:00,79.4,72.7,29.57,West,261,4.0,10.0,80,0.00,,,0.23,VWS V14.01,2013-07-24 01:32:00,
2013-07-23 21:34:00,79.2,72.5,29.58,West,263,3.0,10.0,80,0.00,,,0.23,VWS V14.01,2013-07-24 01:34:00,
2013-07-23 21:39:00,79.2,72.5,29.58,WSW,242,6.0,12.0,80,0.00,,,0.23,VWS V14.01,2013-07-24 01:39:00,
2013-07-23 21:40:00,79.2,72.5,29.58,WSW,242,1.0,12.0,80,0.00,,,0.23,VWS V14.01,2013-07-24 01:40:00,
2013-07-23 21:44:00,79.2,72.9,29.58,WSW,249,7.0,12.0,81,0.00,,,0.23,VWS V14.01,2013-07-24 01:44:00,
2013-07-23 21:45:00,79.2,72.9,29.58,WSW,250,0.0,12.0,81,0.00,,,0.23,VWS V14.01,2013-07-24 01:45:00,
2013-07-23 21:46:00,79.2,72.9,29.58,WSW,250,4.0,12.0,81,0.00,,,0.23,VWS V14.01,2013-07-24 01:46:00,
2013-07-23 21:50:00,79.2,72.9,29.58,WSW,250,0.0,12.0,81,0.00,,,0.23,VWS V14.01,2013-07-24 01:50:00,
2013-07-23 21:51:00,79.2,72.9,29.58,WSW,250,3.0,12.0,81,0.00,,,0.23,VWS V14.01,2013-07-24 01:51:00,
2013-07-23 21:53:00,79.2,72.9,29.58,West,273,4.0,12.0,81,0.00,,,0.23,VWS V14.01,2013-07-24 01:53:00,
2013-07-23 21:56:00,79.2,72.9,29.58,West,273,0.0,12.0,81,0.00,,,0.23,VWS V14.01,2013-07-24 01:56:00,
2013-07-23 21:59:00,79.0,72.7,29.58,West,266,1.0,12.0,81,0.00,,,0.23,VWS V14.01,2013-07-24 01:59:00,
2013-07-23 22:00:00,79.0,72.7,29.58,West,264,0.0,12.0,81,0.00,,,0.23,VWS V14.01,2013-07-24 02:00:00,
2013-07-23 22:02:00,79.0,72.7,29.58,West,267,5.0,12.0,81,0.00,,,0.23,VWS V14.01,2013-07-24 02:02:00,
2013-07-23 22:03:00,79.0,72.7,29.58,West,267,0.0,12.0,81,0.00,,,0.23,VWS V14.01,2013-07-24 02:03:00,
2013-07-23 22:05:00,79.0,72.7,29.58,West,265,0.0,12.0,81,0.00,,,0.23,VWS V14.01,2013-07-24 02:05:00,
2013-07-23 22:12:00,78.8,72.8,29.58,West,269,7.0,9.0,82,0.00,,,0.23,VWS V14.01,2013-07-24 02:12:00,
2013-07-23 22:14:00,78.8,72.8,29.58,West,275,0.0,9.0,82,0.00,,,0.23,VWS V14.01,2013-07-24 02:14:00,
2013-07-23 22:15:00,78.8,72.8,29.58,West,275,4.0,9.0,82,0.00,,,0.23,VWS V14.01,2013-07-24 02:15:00,
2013-07-23 22:18:00,78.6,72.7,29.58,West,273,4.0,9.0,82,0.00,,,0.23,VWS V14.01,2013-07-24 02:18:00,
2013-07-23 22:21:00,78.6,72.7,29.59,West,269,6.0,9.0,82,0.00,,,0.23,VWS V14.01,2013-07-24 02:21:00,
2013-07-23 22:23:00,78.6,72.3,29.59,West,269,4.0,9.0,81,0.00,,,0.23,VWS V14.01,2013-07-24 02:23:00,
2013-07-23 22:26:00,78.6,72.7,29.59,West,263,0.0,10.0,82,0.00,,,0.23,VWS V14.01,2013-07-24 02:26:00,
2013-07-23 22:28:00,78.6,72.3,29.59,WSW,257,7.0,10.0,81,0.00,,,0.23,VWS V14.01,2013-07-24 02:28:00,
2013-07-23 22:29:00,78.6,72.3,29.59,West,262,5.0,10.0,81,0.00,,,0.23,VWS V14.01,2013-07-24 02:29:00,
2013-07-23 22:31:00,78.6,72.7,29.59,West,266,6.0,10.0,82,0.00,,,0.23,VWS V14.01,2013-07-24 02:31:00,
2013-07-23 22:33:00,78.5,72.6,29.59,WNW,286,3.0,10.0,82,0.00,,,0.23,VWS V14.01,2013-07-24 02:33:00,
2013-07-23 22:35:00,78.5,72.6,29.59,West,281,0.0,10.0,82,0.00,,,0.23,VWS V14.01,2013-07-24 02:35:00,
2013-07-23 22:37:00,78.5,72.6,29.59,West,281,6.0,6.0,82,0.00,,,0.23,VWS V14.01,2013-07-24 02:37:00,
2013-07-23 22:40:00,78.3,72.4,29.59,West,277,0.0,7.0,82,0.00,,,0.23,VWS V14.01,2013-07-24 02:40:00,
2013-07-23 22:41:00,78.3,72.4,29.59,West,279,3.0,7.0,82,0.00,,,0.23,VWS V14.01,2013-07-24 02:41:00,
2013-07-23 22:43:00,78.3,72.4,29.59,West,267,6.0,9.0,82,0.00,,,0.23,VWS V14.01,2013-07-24 02:43:00,
2013-07-23 22:48:00,78.1,72.2,29.59,West,266,0.0,9.0,82,0.00,,,0.23,VWS V14.01,2013-07-24 02:48:00,
2013-07-23 22:53:00,78.1,72.5,29.59,West,275,0.0,9.0,83,0.00,,,0.23,VWS V14.01,2013-07-24 02:53:00,
2013-07-23 22:54:00,78.1,72.5,29.59,West,275,0.0,9.0,83,0.00,,,0.23,VWS V14.01,2013-07-24 02:54:00,
2013-07-23 22:55:00,78.1,72.5,29.59,West,275,0.0,9.0,83,0.00,,,0.23,VWS V14.01,2013-07-24 02:55:00,
2013-07-23 22:58:00,77.9,72.3,29.59,West,267,0.0,9.0,83,0.00,,,0.23,VWS V14.01,2013-07-24 02:58:00,
2013-07-23 23:00:00,77.9,72.3,29.59,West,267,3.0,9.0,83,0.00,,,0.23,VWS V14.01,2013-07-24 03:00:00,
2013-07-23 23:02:00,77.9,72.3,29.59,West,268,4.0,9.0,83,0.00,,,0.23,VWS V14.01,2013-07-24 03:02:00,
2013-07-23 23:04:00,77.7,72.1,29.59,West,270,3.0,9.0,83,0.00,,,0.23,VWS V14.01,2013-07-24 03:04:00,
2013-07-23 23:06:00,77.7,72.1,29.59,West,270,2.0,7.0,83,0.00,,,0.23,VWS V14.01,2013-07-24 03:06:00,
2013-07-23 23:08:00,77.7,72.1,29.59,West,270,1.0,7.0,83,0.00,,,0.23,VWS V14.01,2013-07-24 03:08:00,
2013-07-23 23:10:00,77.7,72.5,29.59,West,270,0.0,7.0,84,0.00,,,0.23,VWS V14.01,2013-07-24 03:10:00,
2013-07-23 23:11:00,77.6,72.4,29.59,West,271,0.0,7.0,84,0.00,,,0.23,VWS V14.01,2013-07-24 03:11:00,
2013-07-23 23:13:00,77.6,72.4,29.59,West,271,0.0,7.0,84,0.00,,,0.23,VWS V14.01,2013-07-24 03:13:00,
2013-07-23 23:16:00,77.6,72.4,29.59,West,270,0.0,7.0,84,0.00,,,0.23,VWS V14.01,2013-07-24 03:16:00,
2013-07-23 23:20:00,77.4,72.2,29.58,West,270,0.0,7.0,84,0.00,,,0.23,VWS V14.01,2013-07-24 03:20:00,
2013-07-23 23:25:00,77.4,72.2,29.58,West,270,0.0,7.0,84,0.00,,,0.23,VWS V14.01,2013-07-24 03:25:00,
2013-07-23 23:27:00,77.4,72.2,29.58,West,271,0.0,7.0,84,0.00,,,0.23,VWS V14.01,2013-07-24 03:27:00,
2013-07-23 23:28:00,77.4,72.2,29.58,West,271,0.0,7.0,84,0.00,,,0.23,VWS V14.01,2013-07-24 03:28:00,
2013-07-23 23:32:00,77.2,72.0,29.58,West,271,0.0,7.0,84,0.00,,,0.23,VWS V14.01,2013-07-24 03:32:00,
2013-07-23 23:35:00,77.2,72.0,29.58,West,270,0.0,7.0,84,0.00,,,0.23,VWS V14.01,2013-07-24 03:35:00,
2013-07-23 23:38:00,77.2,72.3,29.58,West,270,3.0,6.0,85,0.00,,,0.23,VWS V14.01,2013-07-24 03:38:00,
2013-07-23 23:40:00,77.2,72.3,29.58,West,270,0.0,6.0,85,0.00,,,0.23,VWS V14.01,2013-07-24 03:40:00,
2013-07-23 23:43:00,77.0,72.2,29.58,West,270,0.0,6.0,85,0.00,,,0.23,VWS V14.01,2013-07-24 03:43:00,
2013-07-23 23:44:00,77.0,72.2,29.58,West,270,0.0,6.0,85,0.00,,,0.23,VWS V14.01,2013-07-24 03:44:00,
2013-07-23 23:46:00,77.0,72.2,29.58,West,271,0.0,6.0,85,0.00,,,0.23,VWS V14.01,2013-07-24 03:46:00,
2013-07-23 23:49:00,77.0,72.5,29.59,West,270,1.0,6.0,86,0.00,,,0.23,VWS V14.01,2013-07-24 03:49:00,
2013-07-23 23:50:00,77.0,72.5,29.59,West,270,0.0,6.0,86,0.00,,,0.23,VWS V14.01,2013-07-24 03:50:00,
2013-07-23 23:51:00,77.0,72.5,29.59,West,270,6.0,7.0,86,0.00,,,0.23,VWS V14.01,2013-07-24 03:51:00,
2013-07-23 23:55:00,76.8,72.3,29.59,West,263,0.0,7.0,86,0.00,,,0.23,VWS V14.01,2013-07-24 03:55:00,
2013-07-23 23:56:00,76.8,72.3,29.59,West,263,0.0,7.0,86,0.00,,,0.23,VWS V14.01,2013-07-24 03:56:00,